Wetterdaten: Sonntag, 30.10.2022
Datum Zeit Temp. 2m Temp +5 cm Feuchte A. Luftdruck Regen Wind Richtung Richtung Sonnenschein UV Solar Taupunkt Windchill Windben
30.10.2022 00:00 14,6 C 11,7 C 72 % 1020,2 hPa 0,0 l/m 0,3 km/h (0 Bft) S 186 0 min 0,0 UV-I 0 W/m 9,6 C 14,6 C 1,6 km/h (1 Bft)
30.10.2022 00:03 14,8 C 12,2 C 71 % 1020,2 hPa 0,0 l/m 0,0 km/h (0 Bft) S 186 0 min 0,0 UV-I 0 W/m 9,6 C 14,8 C 0,0 km/h (0 Bft)
30.10.2022 00:06 14,9 C 12,2 C 71 % 1020,2 hPa 0,0 l/m 0,0 km/h (0 Bft) S 186 0 min 0,0 UV-I 0 W/m 9,7 C 14,9 C 0,0 km/h (0 Bft)
30.10.2022 00:09 14,7 C 12,2 C 72 % 1020,1 hPa 0,0 l/m 3,6 km/h (1 Bft) S 184 0 min 0,0 UV-I 0 W/m 9,7 C 14,7 C 4,8 km/h (1 Bft)
30.10.2022 00:12 14,6 C 12,2 C 72 % 1020,1 hPa 0,0 l/m 0,8 km/h (0 Bft) S 183 0 min 0,0 UV-I 0 W/m 9,6 C 14,6 C 3,2 km/h (1 Bft)
30.10.2022 00:15 14,7 C 12,2 C 72 % 1020,1 hPa 0,0 l/m 0,1 km/h (0 Bft) S 183 0 min 0,0 UV-I 0 W/m 9,7 C 14,7 C 1,6 km/h (1 Bft)
30.10.2022 00:18 14,6 C 12,2 C 72 % 1020,2 hPa 0,0 l/m 0,1 km/h (0 Bft) S 183 0 min 0,0 UV-I 0 W/m 9,6 C 14,6 C 1,6 km/h (1 Bft)
30.10.2022 00:21 14,5 C 12,2 C 73 % 1020,1 hPa 0,0 l/m 0,4 km/h (0 Bft) S 183 0 min 0,0 UV-I 0 W/m 9,7 C 14,5 C 1,6 km/h (1 Bft)
30.10.2022 00:24 14,4 C 11,7 C 73 % 1020,1 hPa 0,0 l/m 0,0 km/h (0 Bft) S 183 0 min 0,0 UV-I 0 W/m 9,6 C 14,4 C 0,0 km/h (0 Bft)
30.10.2022 00:27 14,4 C 11,7 C 73 % 1020,1 hPa 0,0 l/m 0,4 km/h (0 Bft) S 183 0 min 0,0 UV-I 0 W/m 9,6 C 14,4 C 1,6 km/h (1 Bft)
30.10.2022 00:30 14,5 C 12,2 C 73 % 1020,1 hPa 0,0 l/m 3,8 km/h (1 Bft) S 182 0 min 0,0 UV-I 0 W/m 9,7 C 14,5 C 6,4 km/h (2 Bft)
30.10.2022 00:33 14,7 C 12,2 C 72 % 1020,0 hPa 0,0 l/m 3,3 km/h (1 Bft) S 169 0 min 0,0 UV-I 0 W/m 9,7 C 14,7 C 8,0 km/h (2 Bft)
30.10.2022 00:36 14,7 C 12,2 C 72 % 1020,1 hPa 0,0 l/m 3,3 km/h (1 Bft) S 169 0 min 0,0 UV-I 0 W/m 9,7 C 14,7 C 8,0 km/h (2 Bft)
30.10.2022 00:39 14,6 C 12,2 C 72 % 1020,1 hPa 0,0 l/m 1,9 km/h (1 Bft) S 169 0 min 0,0 UV-I 0 W/m 9,6 C 14,6 C 3,2 km/h (1 Bft)
30.10.2022 00:42 14,6 C 12,2 C 72 % 1020,1 hPa 0,0 l/m 2,3 km/h (1 Bft) S 169 0 min 0,0 UV-I 0 W/m 9,6 C 14,6 C 6,4 km/h (2 Bft)
30.10.2022 00:45 14,7 C 12,2 C 72 % 1020,1 hPa 0,0 l/m 3,2 km/h (1 Bft) S-SO 164 0 min 0,0 UV-I 0 W/m 9,7 C 14,7 C 6,4 km/h (2 Bft)
30.10.2022 00:48 14,6 C 12,2 C 73 % 1020,0 hPa 0,0 l/m 5,2 km/h (1 Bft) S-SO 155 0 min 0,0 UV-I 0 W/m 9,8 C 14,6 C 8,0 km/h (2 Bft)
30.10.2022 00:51 14,6 C 12,8 C 73 % 1020,1 hPa 0,0 l/m 6,5 km/h (2 Bft) SO 145 0 min 0,0 UV-I 0 W/m 9,8 C 14,6 C 12,9 km/h (3 Bft)
30.10.2022 00:54 14,6 C 12,8 C 73 % 1020,2 hPa 0,0 l/m 7,3 km/h (2 Bft) S-SO 157 0 min 0,0 UV-I 0 W/m 9,8 C 14,1 C 12,9 km/h (3 Bft)
30.10.2022 00:57 14,4 C 12,8 C 73 % 1020,1 hPa 0,0 l/m 4,4 km/h (1 Bft) S-SO 159 0 min 0,0 UV-I 0 W/m 9,6 C 14,4 C 8,0 km/h (2 Bft)
30.10.2022 01:00 14,5 C 12,8 C 73 % 1020,1 hPa 0,0 l/m 3,3 km/h (1 Bft) S-SO 159 0 min 0,0 UV-I 0 W/m 9,7 C 14,5 C 6,4 km/h (2 Bft)
30.10.2022 01:03 14,4 C 12,2 C 73 % 1020,0 hPa 0,0 l/m 2,7 km/h (1 Bft) S-SO 159 0 min 0,0 UV-I 0 W/m 9,6 C 14,4 C 6,4 km/h (2 Bft)
30.10.2022 01:06 14,4 C 12,2 C 74 % 1020,1 hPa 0,0 l/m 1,3 km/h (1 Bft) S-SO 159 0 min 0,0 UV-I 0 W/m 9,8 C 14,4 C 3,2 km/h (1 Bft)
30.10.2022 01:09 14,4 C 11,7 C 74 % 1020,0 hPa 0,0 l/m 0,9 km/h (0 Bft) S-SO 159 0 min 0,0 UV-I 0 W/m 9,8 C 14,4 C 3,2 km/h (1 Bft)
30.10.2022 01:12 14,3 C 12,2 C 73 % 1020,0 hPa 0,0 l/m 0,2 km/h (0 Bft) S-SO 159 0 min 0,0 UV-I 0 W/m 9,5 C 14,3 C 1,6 km/h (1 Bft)
30.10.2022 01:15 14,3 C 11,7 C 74 % 1019,9 hPa 0,0 l/m 1,2 km/h (1 Bft) S-SO 159 0 min 0,0 UV-I 0 W/m 9,7 C 14,3 C 3,2 km/h (1 Bft)
30.10.2022 01:18 14,3 C 11,7 C 74 % 1019,9 hPa 0,0 l/m 1,5 km/h (1 Bft) S-SO 159 0 min 0,0 UV-I 0 W/m 9,7 C 14,3 C 6,4 km/h (2 Bft)
30.10.2022 01:21 14,3 C 11,7 C 74 % 1019,8 hPa 0,0 l/m 2,8 km/h (1 Bft) S-SO 154 0 min 0,0 UV-I 0 W/m 9,7 C 14,3 C 4,8 km/h (1 Bft)
30.10.2022 01:24 14,3 C 12,2 C 74 % 1019,9 hPa 0,0 l/m 3,2 km/h (1 Bft) S-SO 155 0 min 0,0 UV-I 0 W/m 9,7 C 14,3 C 6,4 km/h (2 Bft)
30.10.2022 01:27 14,3 C 12,2 C 74 % 1019,8 hPa 0,0 l/m 1,6 km/h (1 Bft) S-SO 155 0 min 0,0 UV-I 0 W/m 9,7 C 14,3 C 3,2 km/h (1 Bft)
30.10.2022 01:30 14,2 C 11,7 C 75 % 1019,8 hPa 0,0 l/m 0,5 km/h (0 Bft) S-SO 155 0 min 0,0 UV-I 0 W/m 9,8 C 14,2 C 1,6 km/h (1 Bft)
30.10.2022 01:33 14,1 C 11,7 C 75 % 1020,0 hPa 0,0 l/m 0,3 km/h (0 Bft) S-SO 155 0 min 0,0 UV-I 0 W/m 9,7 C 14,1 C 1,6 km/h (1 Bft)
30.10.2022 01:36 14,1 C 11,1 C 75 % 1019,8 hPa 0,0 l/m 3,2 km/h (1 Bft) S-SW 209 0 min 0,0 UV-I 0 W/m 9,7 C 14,1 C 4,8 km/h (1 Bft)
30.10.2022 01:39 14,4 C 11,1 C 74 % 1019,7 hPa 0,0 l/m 0,9 km/h (0 Bft) S-SW 209 0 min 0,0 UV-I 0 W/m 9,8 C 14,4 C 3,2 km/h (1 Bft)
30.10.2022 01:42 14,4 C 11,1 C 73 % 1019,8 hPa 0,0 l/m 0,2 km/h (0 Bft) S-SW 209 0 min 0,0 UV-I 0 W/m 9,6 C 14,4 C 1,6 km/h (1 Bft)
30.10.2022 01:45 14,2 C 11,1 C 74 % 1019,8 hPa 0,0 l/m 0,0 km/h (0 Bft) S-SW 209 0 min 0,0 UV-I 0 W/m 9,6 C 14,2 C 0,0 km/h (0 Bft)
30.10.2022 01:48 13,9 C 10,6 C 74 % 1019,7 hPa 0,0 l/m 0,0 km/h (0 Bft) S-SW 209 0 min 0,0 UV-I 0 W/m 9,3 C 13,9 C 0,0 km/h (0 Bft)
30.10.2022 01:51 14,0 C 10,6 C 74 % 1019,7 hPa 0,0 l/m 0,1 km/h (0 Bft) S-SW 209 0 min 0,0 UV-I 0 W/m 9,4 C 14,0 C 1,6 km/h (1 Bft)
30.10.2022 01:54 14,0 C 10,6 C 74 % 1019,7 hPa 0,0 l/m 1,3 km/h (1 Bft) S-SW 209 0 min 0,0 UV-I 0 W/m 9,4 C 14,0 C 3,2 km/h (1 Bft)
30.10.2022 01:57 13,9 C 10,6 C 74 % 1019,7 hPa 0,0 l/m 2,8 km/h (1 Bft) S-SW 209 0 min 0,0 UV-I 0 W/m 9,3 C 13,9 C 3,2 km/h (1 Bft)
30.10.2022 02:00 13,7 C 10,6 C 75 % 1019,6 hPa 0,0 l/m 2,1 km/h (1 Bft) S-SW 209 0 min 0,0 UV-I 0 W/m 9,3 C 13,7 C 3,2 km/h (1 Bft)
30.10.2022 02:03 13,6 C 10,6 C 75 % 1019,7 hPa 0,0 l/m 2,9 km/h (1 Bft) S-SW 209 0 min 0,0 UV-I 0 W/m 9,3 C 13,6 C 3,2 km/h (1 Bft)
30.10.2022 02:06 13,7 C 10,0 C 75 % 1019,8 hPa 0,0 l/m 2,2 km/h (1 Bft) S-SW 209 0 min 0,0 UV-I 0 W/m 9,3 C 13,7 C 4,8 km/h (1 Bft)
30.10.2022 02:09 13,3 C 10,0 C 76 % 1019,9 hPa 0,0 l/m 0,7 km/h (0 Bft) S-SW 209 0 min 0,0 UV-I 0 W/m 9,2 C 13,3 C 3,2 km/h (1 Bft)
30.10.2022 02:12 13,1 C 10,0 C 77 % 1019,8 hPa 0,0 l/m 1,9 km/h (1 Bft) S-SW 209 0 min 0,0 UV-I 0 W/m 9,2 C 13,1 C 3,2 km/h (1 Bft)
30.10.2022 02:15 13,1 C 10,0 C 78 % 1019,9 hPa 0,0 l/m 2,1 km/h (1 Bft) S-SW 209 0 min 0,0 UV-I 0 W/m 9,4 C 13,1 C 3,2 km/h (1 Bft)
30.10.2022 02:18 13,0 C 10,0 C 77 % 1020,0 hPa 0,0 l/m 2,3 km/h (1 Bft) S-SW 209 0 min 0,0 UV-I 0 W/m 9,1 C 13,0 C 3,2 km/h (1 Bft)
30.10.2022 02:21 12,9 C 10,0 C 78 % 1020,0 hPa 0,0 l/m 3,1 km/h (1 Bft) SW 214 0 min 0,0 UV-I 0 W/m 9,2 C 12,9 C 4,8 km/h (1 Bft)
30.10.2022 02:24 12,9 C 9,4 C 78 % 1020,0 hPa 0,0 l/m 4,2 km/h (1 Bft) SW 214 0 min 0,0 UV-I 0 W/m 9,2 C 12,9 C 6,4 km/h (2 Bft)
30.10.2022 02:27 12,9 C 9,4 C 78 % 1020,0 hPa 0,0 l/m 4,8 km/h (1 Bft) W-SW 244 0 min 0,0 UV-I 0 W/m 9,2 C 12,9 C 6,4 km/h (2 Bft)
30.10.2022 02:30 12,9 C 9,4 C 78 % 1020,0 hPa 0,0 l/m 3,4 km/h (1 Bft) W-SW 242 0 min 0,0 UV-I 0 W/m 9,2 C 12,9 C 4,8 km/h (1 Bft)
30.10.2022 02:33 12,5 C 9,4 C 78 % 1020,1 hPa 0,0 l/m 3,6 km/h (1 Bft) W-SW 244 0 min 0,0 UV-I 0 W/m 8,8 C 12,5 C 6,4 km/h (2 Bft)
30.10.2022 02:36 12,2 C 9,4 C 80 % 1020,1 hPa 0,0 l/m 2,2 km/h (1 Bft) W-SW 244 0 min 0,0 UV-I 0 W/m 8,9 C 12,2 C 4,8 km/h (1 Bft)
30.10.2022 02:39 11,9 C 8,9 C 80 % 1020,1 hPa 0,0 l/m 0,7 km/h (0 Bft) W-SW 244 0 min 0,0 UV-I 0 W/m 8,6 C 11,9 C 3,2 km/h (1 Bft)
30.10.2022 02:42 11,8 C 8,9 C 81 % 1020,0 hPa 0,0 l/m 0,9 km/h (0 Bft) W-SW 244 0 min 0,0 UV-I 0 W/m 8,6 C 11,8 C 3,2 km/h (1 Bft)
30.10.2022 02:45 11,7 C 8,9 C 82 % 1020,0 hPa 0,0 l/m 0,6 km/h (0 Bft) W-SW 244 0 min 0,0 UV-I 0 W/m 8,7 C 11,7 C 1,6 km/h (1 Bft)
30.10.2022 02:48 11,8 C 9,4 C 82 % 1019,9 hPa 0,0 l/m 0,8 km/h (0 Bft) W-SW 244 0 min 0,0 UV-I 0 W/m 8,8 C 11,8 C 1,6 km/h (1 Bft)
30.10.2022 02:51 11,8 C 8,9 C 81 % 1019,9 hPa 0,0 l/m 0,6 km/h (0 Bft) W-SW 244 0 min 0,0 UV-I 0 W/m 8,6 C 11,8 C 3,2 km/h (1 Bft)
30.10.2022 02:54 11,6 C 8,9 C 82 % 1019,9 hPa 0,0 l/m 0,4 km/h (0 Bft) W-SW 244 0 min 0,0 UV-I 0 W/m 8,6 C 11,6 C 1,6 km/h (1 Bft)
30.10.2022 02:57 11,6 C 8,9 C 83 % 1019,9 hPa 0,0 l/m 1,6 km/h (1 Bft) W-SW 244 0 min 0,0 UV-I 0 W/m 8,8 C 11,6 C 3,2 km/h (1 Bft)
30.10.2022 02:00 11,6 C 8,9 C 83 % 1019,9 hPa 0,0 l/m 1,9 km/h (1 Bft) W-SW 244 0 min 0,0 UV-I 0 W/m 8,8 C 11,6 C 3,2 km/h (1 Bft)
30.10.2022 02:03 11,7 C 8,9 C 83 % 1020,0 hPa 0,0 l/m 1,5 km/h (1 Bft) W-SW 244 0 min 0,0 UV-I 0 W/m 8,9 C 11,7 C 3,2 km/h (1 Bft)
30.10.2022 02:06 11,8 C 8,9 C 83 % 1020,1 hPa 0,0 l/m 0,5 km/h (0 Bft) W-SW 244 0 min 0,0 UV-I 0 W/m 9,0 C 11,8 C 1,6 km/h (1 Bft)
30.10.2022 02:09 12,2 C 8,9 C 82 % 1020,1 hPa 0,0 l/m 0,0 km/h (0 Bft) W-SW 244 0 min 0,0 UV-I 0 W/m 9,2 C 12,2 C 0,0 km/h (0 Bft)
30.10.2022 02:12 12,3 C 8,9 C 81 % 1020,1 hPa 0,0 l/m 0,0 km/h (0 Bft) W-SW 244 0 min 0,0 UV-I 0 W/m 9,1 C 12,3 C 0,0 km/h (0 Bft)
30.10.2022 02:15 12,3 C 8,9 C 81 % 1020,1 hPa 0,0 l/m 0,0 km/h (0 Bft) W-SW 244 0 min 0,0 UV-I 0 W/m 9,1 C 12,3 C 0,0 km/h (0 Bft)
30.10.2022 02:18 12,3 C 8,9 C 81 % 1020,0 hPa 0,0 l/m 0,0 km/h (0 Bft) W-SW 244 0 min 0,0 UV-I 0 W/m 9,1 C 12,3 C 1,6 km/h (1 Bft)
30.10.2022 02:21 12,2 C 8,9 C 81 % 1020,0 hPa 0,0 l/m 0,3 km/h (0 Bft) W-SW 244 0 min 0,0 UV-I 0 W/m 9,0 C 12,2 C 1,6 km/h (1 Bft)
30.10.2022 02:24 12,1 C 8,9 C 81 % 1019,9 hPa 0,0 l/m 0,0 km/h (0 Bft) W-SW 244 0 min 0,0 UV-I 0 W/m 8,9 C 12,1 C 0,0 km/h (0 Bft)
30.10.2022 02:27 12,1 C 8,9 C 81 % 1019,9 hPa 0,0 l/m 0,0 km/h (0 Bft) W-SW 244 0 min 0,0 UV-I 0 W/m 8,9 C 12,1 C 0,0 km/h (0 Bft)
30.10.2022 02:30 12,0 C 8,9 C 81 % 1019,9 hPa 0,0 l/m 0,0 km/h (0 Bft) W-SW 244 0 min 0,0 UV-I 0 W/m 8,8 C 12,0 C 0,0 km/h (0 Bft)
30.10.2022 02:33 11,8 C 8,3 C 82 % 1020,0 hPa 0,0 l/m 0,0 km/h (0 Bft) W-SW 244 0 min 0,0 UV-I 0 W/m 8,8 C 11,8 C 0,0 km/h (0 Bft)
30.10.2022 02:36 11,6 C 8,3 C 82 % 1019,9 hPa 0,0 l/m 0,0 km/h (0 Bft) W-SW 244 0 min 0,0 UV-I 0 W/m 8,6 C 11,6 C 0,0 km/h (0 Bft)
30.10.2022 02:39 11,3 C 8,3 C 83 % 1020,0 hPa 0,0 l/m 0,0 km/h (0 Bft) W-SW 244 0 min 0,0 UV-I 0 W/m 8,5 C 11,3 C 0,0 km/h (0 Bft)
30.10.2022 02:42 10,9 C 7,8 C 83 % 1020,0 hPa 0,0 l/m 0,0 km/h (0 Bft) W-SW 244 0 min 0,0 UV-I 0 W/m 8,1 C 10,9 C 0,0 km/h (0 Bft)
30.10.2022 02:45 10,8 C 8,3 C 84 % 1019,9 hPa 0,0 l/m 0,0 km/h (0 Bft) W-SW 244 0 min 0,0 UV-I 0 W/m 8,2 C 10,8 C 0,0 km/h (0 Bft)
30.10.2022 02:48 10,9 C 8,3 C 85 % 1020,0 hPa 0,0 l/m 0,0 km/h (0 Bft) W-SW 244 0 min 0,0 UV-I 0 W/m 8,5 C 10,9 C 0,0 km/h (0 Bft)
30.10.2022 02:51 11,0 C 7,8 C 85 % 1020,0 hPa 0,0 l/m 0,0 km/h (0 Bft) W-SW 244 0 min 0,0 UV-I 0 W/m 8,6 C 11,0 C 0,0 km/h (0 Bft)
30.10.2022 02:54 11,0 C 7,8 C 85 % 1019,9 hPa 0,0 l/m 0,0 km/h (0 Bft) W-SW 244 0 min 0,0 UV-I 0 W/m 8,6 C 11,0 C 0,0 km/h (0 Bft)
30.10.2022 02:57 10,7 C 7,8 C 84 % 1020,0 hPa 0,0 l/m 0,0 km/h (0 Bft) W-SW 244 0 min 0,0 UV-I 0 W/m 8,1 C 10,7 C 0,0 km/h (0 Bft)
30.10.2022 03:00 10,7 C 7,8 C 85 % 1020,0 hPa 0,0 l/m 0,0 km/h (0 Bft) W-SW 244 0 min 0,0 UV-I 0 W/m 8,3 C 10,7 C 0,0 km/h (0 Bft)
30.10.2022 03:03 10,1 C 7,2 C 84 % 1020,0 hPa 0,0 l/m 0,2 km/h (0 Bft) W-SW 244 0 min 0,0 UV-I 0 W/m 7,5 C 10,1 C 1,6 km/h (1 Bft)
30.10.2022 03:06 9,7 C 7,2 C 85 % 1019,9 hPa 0,0 l/m 0,8 km/h (0 Bft) W-SW 244 0 min 0,0 UV-I 0 W/m 7,3 C 9,7 C 1,6 km/h (1 Bft)
30.10.2022 03:09 9,6 C 6,7 C 87 % 1019,9 hPa 0,0 l/m 1,5 km/h (1 Bft) W-SW 244 0 min 0,0 UV-I 0 W/m 7,5 C 9,6 C 3,2 km/h (1 Bft)
30.10.2022 03:12 9,6 C 7,2 C 87 % 1020,0 hPa 0,0 l/m 0,1 km/h (0 Bft) W-SW 244 0 min 0,0 UV-I 0 W/m 7,5 C 9,6 C 1,6 km/h (1 Bft)
30.10.2022 03:15 9,6 C 7,2 C 87 % 1019,9 hPa 0,0 l/m 0,0 km/h (0 Bft) W-SW 244 0 min 0,0 UV-I 0 W/m 7,5 C 9,6 C 0,0 km/h (0 Bft)
30.10.2022 03:18 9,5 C 7,2 C 87 % 1019,9 hPa 0,0 l/m 0,0 km/h (0 Bft) W-SW 244 0 min 0,0 UV-I 0 W/m 7,4 C 9,5 C 0,0 km/h (0 Bft)
30.10.2022 03:21 9,6 C 7,2 C 88 % 1019,9 hPa 0,0 l/m 0,0 km/h (0 Bft) W-SW 244 0 min 0,0 UV-I 0 W/m 7,7 C 9,6 C 0,0 km/h (0 Bft)
30.10.2022 03:24 9,4 C 6,7 C 87 % 1019,9 hPa 0,0 l/m 1,3 km/h (1 Bft) W-SW 244 0 min 0,0 UV-I 0 W/m 7,3 C 9,4 C 3,2 km/h (1 Bft)
30.10.2022 03:27 9,3 C 6,7 C 88 % 1019,9 hPa 0,0 l/m 2,1 km/h (1 Bft) W-SW 244 0 min 0,0 UV-I 0 W/m 7,4 C 9,3 C 3,2 km/h (1 Bft)
30.10.2022 03:30 9,0 C 6,7 C 88 % 1019,9 hPa 0,0 l/m 4,1 km/h (1 Bft) N-NW 347 0 min 0,0 UV-I 0 W/m 7,1 C 9,0 C 4,8 km/h (1 Bft)
30.10.2022 03:33 8,9 C 6,7 C 88 % 1019,8 hPa 0,0 l/m 3,4 km/h (1 Bft) N 355 0 min 0,0 UV-I 0 W/m 7,0 C 8,9 C 4,8 km/h (1 Bft)
30.10.2022 03:36 8,8 C 6,7 C 89 % 1019,8 hPa 0,0 l/m 2,3 km/h (1 Bft) N 355 0 min 0,0 UV-I 0 W/m 7,1 C 8,8 C 4,8 km/h (1 Bft)
30.10.2022 03:39 8,8 C 6,1 C 89 % 1019,8 hPa 0,0 l/m 1,5 km/h (1 Bft) N 355 0 min 0,0 UV-I 0 W/m 7,1 C 8,8 C 3,2 km/h (1 Bft)
30.10.2022 03:42 8,7 C 6,1 C 89 % 1019,9 hPa 0,0 l/m 0,0 km/h (0 Bft) N 355 0 min 0,0 UV-I 0 W/m 7,0 C 8,7 C 1,6 km/h (1 Bft)
30.10.2022 03:45 8,4 C 6,1 C 89 % 1019,8 hPa 0,0 l/m 0,1 km/h (0 Bft) N 355 0 min 0,0 UV-I 0 W/m 6,7 C 8,4 C 1,6 km/h (1 Bft)
30.10.2022 03:48 8,3 C 6,1 C 89 % 1019,8 hPa 0,0 l/m 0,0 km/h (0 Bft) N 355 0 min 0,0 UV-I 0 W/m 6,6 C 8,3 C 0,0 km/h (0 Bft)
30.10.2022 03:51 8,3 C 6,1 C 90 % 1019,9 hPa 0,0 l/m 0,0 km/h (0 Bft) N 355 0 min 0,0 UV-I 0 W/m 6,8 C 8,3 C 0,0 km/h (0 Bft)
30.10.2022 03:54 8,4 C 6,1 C 90 % 1019,9 hPa 0,0 l/m 0,0 km/h (0 Bft) N 355 0 min 0,0 UV-I 0 W/m 6,9 C 8,4 C 0,0 km/h (0 Bft)
30.10.2022 03:57 8,3 C 6,7 C 90 % 1020,0 hPa 0,0 l/m 0,0 km/h (0 Bft) N 355 0 min 0,0 UV-I 0 W/m 6,8 C 8,3 C 0,0 km/h (0 Bft)
30.10.2022 04:00 8,3 C 6,7 C 90 % 1019,9 hPa 0,0 l/m 1,4 km/h (1 Bft) N 355 0 min 0,0 UV-I 0 W/m 6,8 C 8,3 C 3,2 km/h (1 Bft)
30.10.2022 04:03 8,1 C 6,1 C 89 % 1020,0 hPa 0,0 l/m 1,4 km/h (1 Bft) N 355 0 min 0,0 UV-I 0 W/m 6,4 C 8,1 C 3,2 km/h (1 Bft)
30.10.2022 04:06 7,9 C 6,1 C 90 % 1020,1 hPa 0,0 l/m 2,4 km/h (1 Bft) N 350 0 min 0,0 UV-I 0 W/m 6,4 C 7,9 C 3,2 km/h (1 Bft)
30.10.2022 04:09 8,1 C 6,1 C 90 % 1020,0 hPa 0,0 l/m 2,8 km/h (1 Bft) N 350 0 min 0,0 UV-I 0 W/m 6,6 C 8,1 C 3,2 km/h (1 Bft)
30.10.2022 04:12 8,2 C 6,7 C 90 % 1020,0 hPa 0,0 l/m 3,5 km/h (1 Bft) N-NW 342 0 min 0,0 UV-I 0 W/m 6,7 C 8,2 C 4,8 km/h (1 Bft)
30.10.2022 04:15 8,3 C 6,1 C 90 % 1020,1 hPa 0,0 l/m 3,6 km/h (1 Bft) N-NW 341 0 min 0,0 UV-I 0 W/m 6,8 C 8,3 C 4,8 km/h (1 Bft)
30.10.2022 04:18 8,0 C 6,1 C 89 % 1020,1 hPa 0,0 l/m 0,6 km/h (0 Bft) N-NW 341 0 min 0,0 UV-I 0 W/m 6,3 C 8,0 C 3,2 km/h (1 Bft)
30.10.2022 04:21 7,7 C 6,1 C 90 % 1020,0 hPa 0,0 l/m 0,6 km/h (0 Bft) N-NW 341 0 min 0,0 UV-I 0 W/m 6,2 C 7,7 C 3,2 km/h (1 Bft)
30.10.2022 04:24 7,8 C 5,6 C 90 % 1020,0 hPa 0,0 l/m 1,2 km/h (1 Bft) N-NW 341 0 min 0,0 UV-I 0 W/m 6,3 C 7,8 C 3,2 km/h (1 Bft)
30.10.2022 04:27 7,8 C 5,6 C 90 % 1020,0 hPa 0,0 l/m 0,1 km/h (0 Bft) N-NW 341 0 min 0,0 UV-I 0 W/m 6,3 C 7,8 C 1,6 km/h (1 Bft)
30.10.2022 04:30 7,9 C 6,1 C 91 % 1020,0 hPa 0,0 l/m 1,0 km/h (0 Bft) N-NW 341 0 min 0,0 UV-I 0 W/m 6,5 C 7,9 C 3,2 km/h (1 Bft)
30.10.2022 04:33 8,0 C 6,1 C 91 % 1020,0 hPa 0,0 l/m 0,0 km/h (0 Bft) N-NW 341 0 min 0,0 UV-I 0 W/m 6,6 C 8,0 C 0,0 km/h (0 Bft)
30.10.2022 04:36 7,7 C 5,6 C 90 % 1020,1 hPa 0,0 l/m 0,0 km/h (0 Bft) N-NW 341 0 min 0,0 UV-I 0 W/m 6,2 C 7,7 C 0,0 km/h (0 Bft)
30.10.2022 04:39 7,6 C 5,6 C 90 % 1019,9 hPa 0,0 l/m 0,0 km/h (0 Bft) N-NW 341 0 min 0,0 UV-I 0 W/m 6,1 C 7,6 C 0,0 km/h (0 Bft)
30.10.2022 04:42 7,5 C 5,6 C 91 % 1020,1 hPa 0,0 l/m 0,0 km/h (0 Bft) N-NW 341 0 min 0,0 UV-I 0 W/m 6,1 C 7,5 C 0,0 km/h (0 Bft)
30.10.2022 04:45 7,7 C 6,1 C 91 % 1020,1 hPa 0,0 l/m 0,0 km/h (0 Bft) N-NW 341 0 min 0,0 UV-I 0 W/m 6,3 C 7,7 C 0,0 km/h (0 Bft)
30.10.2022 04:48 7,9 C 6,1 C 92 % 1020,1 hPa 0,0 l/m 0,0 km/h (0 Bft) N-NW 341 0 min 0,0 UV-I 0 W/m 6,7 C 7,9 C 0,0 km/h (0 Bft)
30.10.2022 04:51 8,0 C 6,1 C 91 % 1020,3 hPa 0,0 l/m 0,0 km/h (0 Bft) N-NW 341 0 min 0,0 UV-I 0 W/m 6,6 C 8,0 C 1,6 km/h (1 Bft)
30.10.2022 04:54 7,3 C 5,6 C 90 % 1020,3 hPa 0,0 l/m 0,3 km/h (0 Bft) N-NW 341 0 min 0,0 UV-I 0 W/m 5,8 C 7,3 C 1,6 km/h (1 Bft)
30.10.2022 04:57 6,8 C 5,0 C 90 % 1020,3 hPa 0,0 l/m 0,0 km/h (0 Bft) N-NW 341 0 min 0,0 UV-I 0 W/m 5,3 C 6,8 C 0,0 km/h (0 Bft)
30.10.2022 05:00 7,0 C 5,0 C 91 % 1020,3 hPa 0,0 l/m 0,0 km/h (0 Bft) N-NW 341 0 min 0,0 UV-I 0 W/m 5,6 C 7,0 C 0,0 km/h (0 Bft)
30.10.2022 05:03 7,2 C 5,6 C 91 % 1020,2 hPa 0,0 l/m 0,2 km/h (0 Bft) N-NW 341 0 min 0,0 UV-I 0 W/m 5,8 C 7,2 C 1,6 km/h (1 Bft)
30.10.2022 05:06 7,3 C 5,0 C 91 % 1020,2 hPa 0,0 l/m 0,7 km/h (0 Bft) N-NW 341 0 min 0,0 UV-I 0 W/m 5,9 C 7,3 C 3,2 km/h (1 Bft)
30.10.2022 05:09 7,4 C 5,0 C 91 % 1020,2 hPa 0,0 l/m 0,0 km/h (0 Bft) N-NW 341 0 min 0,0 UV-I 0 W/m 6,0 C 7,4 C 0,0 km/h (0 Bft)
30.10.2022 05:12 7,6 C 5,6 C 92 % 1020,2 hPa 0,0 l/m 0,0 km/h (0 Bft) N-NW 341 0 min 0,0 UV-I 0 W/m 6,4 C 7,6 C 0,0 km/h (0 Bft)
30.10.2022 05:15 7,8 C 5,6 C 92 % 1020,2 hPa 0,0 l/m 0,0 km/h (0 Bft) N-NW 341 0 min 0,0 UV-I 0 W/m 6,6 C 7,8 C 0,0 km/h (0 Bft)
30.10.2022 05:18 7,4 C 5,6 C 91 % 1020,1 hPa 0,0 l/m 0,0 km/h (0 Bft) N-NW 341 0 min 0,0 UV-I 0 W/m 6,0 C 7,4 C 0,0 km/h (0 Bft)
30.10.2022 05:21 6,9 C 5,0 C 91 % 1020,1 hPa 0,0 l/m 0,0 km/h (0 Bft) N-NW 341 0 min 0,0 UV-I 0 W/m 5,5 C 6,9 C 0,0 km/h (0 Bft)
30.10.2022 05:24 6,8 C 5,0 C 91 % 1020,1 hPa 0,0 l/m 0,0 km/h (0 Bft) N-NW 341 0 min 0,0 UV-I 0 W/m 5,4 C 6,8 C 0,0 km/h (0 Bft)
30.10.2022 05:27 6,8 C 5,0 C 92 % 1020,2 hPa 0,0 l/m 0,0 km/h (0 Bft) N-NW 341 0 min 0,0 UV-I 0 W/m 5,6 C 6,8 C 0,0 km/h (0 Bft)
30.10.2022 05:30 6,7 C 5,0 C 91 % 1020,2 hPa 0,0 l/m 0,0 km/h (0 Bft) N-NW 341 0 min 0,0 UV-I 0 W/m 5,3 C 6,7 C 0,0 km/h (0 Bft)
30.10.2022 05:33 6,8 C 5,0 C 92 % 1020,1 hPa 0,0 l/m 0,0 km/h (0 Bft) N-NW 341 0 min 0,0 UV-I 0 W/m 5,6 C 6,8 C 0,0 km/h (0 Bft)
30.10.2022 05:36 6,8 C 5,0 C 91 % 1020,2 hPa 0,0 l/m 0,0 km/h (0 Bft) N-NW 341 0 min 0,0 UV-I 0 W/m 5,4 C 6,8 C 0,0 km/h (0 Bft)
30.10.2022 05:39 6,8 C 5,0 C 92 % 1020,1 hPa 0,0 l/m 0,0 km/h (0 Bft) N-NW 341 0 min 0,0 UV-I 0 W/m 5,6 C 6,8 C 0,0 km/h (0 Bft)
30.10.2022 05:42 6,8 C 5,0 C 92 % 1020,1 hPa 0,0 l/m 0,0 km/h (0 Bft) N-NW 341 0 min 0,0 UV-I 0 W/m 5,6 C 6,8 C 0,0 km/h (0 Bft)
30.10.2022 05:45 6,9 C 5,6 C 92 % 1020,1 hPa 0,0 l/m 0,0 km/h (0 Bft) N-NW 341 0 min 0,0 UV-I 0 W/m 5,7 C 6,9 C 0,0 km/h (0 Bft)
30.10.2022 05:48 6,8 C 5,0 C 92 % 1020,0 hPa 0,0 l/m 0,0 km/h (0 Bft) N-NW 341 0 min 0,0 UV-I 0 W/m 5,6 C 6,8 C 0,0 km/h (0 Bft)
30.10.2022 05:51 6,7 C 5,0 C 92 % 1020,0 hPa 0,0 l/m 0,0 km/h (0 Bft) N-NW 341 0 min 0,0 UV-I 0 W/m 5,5 C 6,7 C 0,0 km/h (0 Bft)
30.10.2022 05:54 6,6 C 5,0 C 92 % 1019,9 hPa 0,0 l/m 0,0 km/h (0 Bft) N-NW 341 0 min 0,0 UV-I 0 W/m 5,4 C 6,6 C 0,0 km/h (0 Bft)
30.10.2022 05:57 6,7 C 5,0 C 92 % 1019,9 hPa 0,0 l/m 0,0 km/h (0 Bft) N-NW 341 0 min 0,0 UV-I 0 W/m 5,5 C 6,7 C 0,0 km/h (0 Bft)
30.10.2022 06:00 6,9 C 5,0 C 92 % 1020,0 hPa 0,0 l/m 0,0 km/h (0 Bft) N-NW 341 0 min 0,0 UV-I 0 W/m 5,7 C 6,9 C 0,0 km/h (0 Bft)
30.10.2022 06:03 6,9 C 5,0 C 92 % 1019,9 hPa 0,0 l/m 0,0 km/h (0 Bft) N-NW 341 0 min 0,0 UV-I 0 W/m 5,7 C 6,9 C 0,0 km/h (0 Bft)
30.10.2022 06:06 6,9 C 5,0 C 92 % 1019,8 hPa 0,0 l/m 0,0 km/h (0 Bft) N-NW 341 0 min 0,0 UV-I 0 W/m 5,7 C 6,9 C 0,0 km/h (0 Bft)
30.10.2022 06:09 6,8 C 4,4 C 92 % 1019,8 hPa 0,0 l/m 0,0 km/h (0 Bft) N-NW 341 0 min 0,0 UV-I 0 W/m 5,6 C 6,8 C 0,0 km/h (0 Bft)
30.10.2022 06:12 6,8 C 4,4 C 92 % 1019,8 hPa 0,0 l/m 0,0 km/h (0 Bft) N-NW 341 0 min 0,0 UV-I 0 W/m 5,6 C 6,8 C 0,0 km/h (0 Bft)
30.10.2022 06:15 6,7 C 4,4 C 92 % 1019,7 hPa 0,0 l/m 0,0 km/h (0 Bft) N-NW 341 0 min 0,0 UV-I 0 W/m 5,5 C 6,7 C 0,0 km/h (0 Bft)
30.10.2022 06:18 6,4 C 5,0 C 92 % 1019,6 hPa 0,0 l/m 0,0 km/h (0 Bft) N-NW 341 0 min 0,0 UV-I 0 W/m 5,2 C 6,4 C 0,0 km/h (0 Bft)
30.10.2022 06:21 6,2 C 4,4 C 92 % 1019,5 hPa 0,0 l/m 0,0 km/h (0 Bft) N-NW 341 0 min 0,0 UV-I 0 W/m 5,0 C 6,2 C 0,0 km/h (0 Bft)
30.10.2022 06:24 6,1 C 5,0 C 92 % 1019,5 hPa 0,0 l/m 0,0 km/h (0 Bft) N-NW 341 0 min 0,0 UV-I 0 W/m 4,9 C 6,1 C 0,0 km/h (0 Bft)
30.10.2022 06:27 6,3 C 5,0 C 93 % 1019,5 hPa 0,0 l/m 0,0 km/h (0 Bft) N-NW 341 0 min 0,0 UV-I 0 W/m 5,3 C 6,3 C 0,0 km/h (0 Bft)
30.10.2022 06:30 6,8 C 5,0 C 93 % 1019,6 hPa 0,0 l/m 0,0 km/h (0 Bft) N-NW 341 0 min 0,0 UV-I 0 W/m 5,7 C 6,8 C 0,0 km/h (0 Bft)
30.10.2022 06:33 6,7 C 5,0 C 92 % 1019,6 hPa 0,0 l/m 0,0 km/h (0 Bft) N-NW 341 0 min 0,0 UV-I 0 W/m 5,5 C 6,7 C 0,0 km/h (0 Bft)
30.10.2022 06:36 6,4 C 5,0 C 92 % 1019,5 hPa 0,0 l/m 0,0 km/h (0 Bft) N-NW 341 0 min 0,0 UV-I 0 W/m 5,2 C 6,4 C 0,0 km/h (0 Bft)
30.10.2022 06:39 6,3 C 5,0 C 92 % 1019,5 hPa 0,0 l/m 0,0 km/h (0 Bft) N-NW 341 0 min 0,0 UV-I 0 W/m 5,1 C 6,3 C 0,0 km/h (0 Bft)
30.10.2022 06:42 6,6 C 5,0 C 93 % 1019,4 hPa 0,0 l/m 0,0 km/h (0 Bft) N-NW 341 0 min 0,0 UV-I 0 W/m 5,6 C 6,6 C 0,0 km/h (0 Bft)
30.10.2022 06:45 6,9 C 5,0 C 93 % 1019,5 hPa 0,0 l/m 0,0 km/h (0 Bft) N-NW 341 0 min 0,0 UV-I 0 W/m 5,8 C 6,9 C 0,0 km/h (0 Bft)
30.10.2022 06:48 6,9 C 5,0 C 93 % 1019,4 hPa 0,0 l/m 0,0 km/h (0 Bft) N-NW 341 0 min 0,0 UV-I 0 W/m 5,8 C 6,9 C 0,0 km/h (0 Bft)
30.10.2022 06:51 6,8 C 5,0 C 92 % 1019,5 hPa 0,0 l/m 0,0 km/h (0 Bft) N-NW 341 0 min 0,0 UV-I 0 W/m 5,6 C 6,8 C 0,0 km/h (0 Bft)
30.10.2022 06:54 6,3 C 4,4 C 92 % 1019,6 hPa 0,0 l/m 0,0 km/h (0 Bft) N-NW 341 0 min 0,0 UV-I 0 W/m 5,1 C 6,3 C 0,0 km/h (0 Bft)
30.10.2022 06:57 6,2 C 4,4 C 92 % 1019,5 hPa 0,0 l/m 0,0 km/h (0 Bft) N-NW 341 0 min 0,0 UV-I 0 W/m 5,0 C 6,2 C 0,0 km/h (0 Bft)
30.10.2022 07:00 6,1 C 4,4 C 92 % 1019,5 hPa 0,0 l/m 0,0 km/h (0 Bft) N-NW 341 0 min 0,0 UV-I 0 W/m 4,9 C 6,1 C 0,0 km/h (0 Bft)
30.10.2022 07:01 6,1 C 4,4 C 92 % 1019,5 hPa 0,0 l/m 0,0 km/h (0 Bft) N 0 0 min 0,0 UV-I 0 W/m 4,9 C 6,1 C 0,0 km/h (0 Bft)
30.10.2022 07:03 6,1 C 4,4 C 93 % 1019,6 hPa 0,0 l/m 0,0 km/h (0 Bft) N-NW 341 0 min 0,0 UV-I 0 W/m 5,1 C 6,1 C 0,0 km/h (0 Bft)
30.10.2022 07:06 6,2 C 4,4 C 93 % 1019,6 hPa 0,0 l/m 0,0 km/h (0 Bft) N-NW 341 0 min 0,0 UV-I 0 W/m 5,2 C 6,2 C 0,0 km/h (0 Bft)
30.10.2022 07:09 6,2 C 4,4 C 92 % 1019,6 hPa 0,0 l/m 0,0 km/h (0 Bft) N-NW 341 0 min 0,0 UV-I 0 W/m 5,0 C 6,2 C 0,0 km/h (0 Bft)
30.10.2022 07:12 6,2 C 4,4 C 93 % 1019,6 hPa 0,0 l/m 0,0 km/h (0 Bft) N-NW 341 0 min 0,0 UV-I 0 W/m 5,2 C 6,2 C 0,0 km/h (0 Bft)
30.10.2022 07:15 6,3 C 4,4 C 93 % 1019,6 hPa 0,0 l/m 0,0 km/h (0 Bft) N-NW 341 0 min 0,0 UV-I 0 W/m 5,3 C 6,3 C 0,0 km/h (0 Bft)
30.10.2022 07:18 6,3 C 4,4 C 93 % 1019,6 hPa 0,0 l/m 0,0 km/h (0 Bft) N-NW 341 0 min 0,0 UV-I 0 W/m 5,3 C 6,3 C 0,0 km/h (0 Bft)
30.10.2022 07:21 6,2 C 4,4 C 92 % 1019,6 hPa 0,0 l/m 0,0 km/h (0 Bft) N-NW 341 0 min 0,0 UV-I 0 W/m 5,0 C 6,2 C 0,0 km/h (0 Bft)
30.10.2022 07:24 6,1 C 4,4 C 92 % 1019,5 hPa 0,0 l/m 0,0 km/h (0 Bft) N-NW 341 0 min 0,0 UV-I 1 W/m 4,9 C 6,1 C 0,0 km/h (0 Bft)
30.10.2022 07:27 5,8 C 4,4 C 92 % 1019,6 hPa 0,0 l/m 0,0 km/h (0 Bft) N-NW 341 0 min 0,0 UV-I 6 W/m 4,6 C 5,8 C 0,0 km/h (0 Bft)
30.10.2022 07:30 6,0 C 4,4 C 93 % 1019,6 hPa 0,0 l/m 0,0 km/h (0 Bft) N-NW 341 0 min 0,0 UV-I 8 W/m 5,0 C 6,0 C 0,0 km/h (0 Bft)
30.10.2022 07:33 6,2 C 5,0 C 93 % 1019,6 hPa 0,0 l/m 0,0 km/h (0 Bft) N-NW 341 0 min 0,0 UV-I 11 W/m 5,2 C 6,2 C 0,0 km/h (0 Bft)
30.10.2022 07:36 6,4 C 5,0 C 93 % 1019,7 hPa 0,0 l/m 0,0 km/h (0 Bft) N-NW 341 0 min 0,0 UV-I 11 W/m 5,4 C 6,4 C 0,0 km/h (0 Bft)
30.10.2022 07:39 6,5 C 5,0 C 93 % 1019,7 hPa 0,0 l/m 0,0 km/h (0 Bft) N-NW 341 0 min 0,0 UV-I 13 W/m 5,5 C 6,5 C 0,0 km/h (0 Bft)
30.10.2022 07:42 6,3 C 5,0 C 93 % 1019,6 hPa 0,0 l/m 0,0 km/h (0 Bft) N-NW 341 0 min 0,0 UV-I 17 W/m 5,3 C 6,3 C 0,0 km/h (0 Bft)
30.10.2022 07:45 6,1 C 5,0 C 92 % 1019,7 hPa 0,0 l/m 0,0 km/h (0 Bft) N-NW 341 0 min 0,0 UV-I 23 W/m 4,9 C 6,1 C 0,0 km/h (0 Bft)
30.10.2022 07:48 5,9 C 5,0 C 93 % 1019,7 hPa 0,0 l/m 0,0 km/h (0 Bft) N-NW 341 0 min 0,0 UV-I 26 W/m 4,9 C 5,9 C 0,0 km/h (0 Bft)
30.10.2022 07:51 5,9 C 5,6 C 93 % 1019,7 hPa 0,0 l/m 0,0 km/h (0 Bft) N-NW 341 0 min 0,0 UV-I 29 W/m 4,9 C 5,9 C 0,0 km/h (0 Bft)
30.10.2022 07:54 6,3 C 5,6 C 93 % 1019,8 hPa 0,0 l/m 0,0 km/h (0 Bft) N-NW 341 0 min 0,0 UV-I 36 W/m 5,3 C 6,3 C 0,0 km/h (0 Bft)
30.10.2022 07:57 6,4 C 6,1 C 93 % 1019,6 hPa 0,0 l/m 0,0 km/h (0 Bft) N-NW 341 0 min 0,0 UV-I 43 W/m 5,4 C 6,4 C 0,0 km/h (0 Bft)
30.10.2022 08:00 6,4 C 6,7 C 93 % 1019,7 hPa 0,0 l/m 0,0 km/h (0 Bft) N-NW 341 0 min 0,0 UV-I 49 W/m 5,4 C 6,4 C 0,0 km/h (0 Bft)
30.10.2022 08:03 6,6 C 6,7 C 93 % 1019,7 hPa 0,0 l/m 0,0 km/h (0 Bft) N-NW 341 0 min 0,0 UV-I 52 W/m 5,6 C 6,6 C 0,0 km/h (0 Bft)
30.10.2022 08:06 6,8 C 7,2 C 93 % 1019,7 hPa 0,0 l/m 0,0 km/h (0 Bft) N-NW 341 0 min 0,0 UV-I 56 W/m 5,7 C 6,8 C 0,0 km/h (0 Bft)
30.10.2022 08:09 6,9 C 7,8 C 93 % 1019,8 hPa 0,0 l/m 0,0 km/h (0 Bft) N-NW 341 0 min 0,0 UV-I 60 W/m 5,8 C 6,9 C 0,0 km/h (0 Bft)
30.10.2022 08:12 7,2 C 8,3 C 93 % 1019,7 hPa 0,0 l/m 0,0 km/h (0 Bft) N-NW 341 0 min 0,0 UV-I 63 W/m 6,1 C 7,2 C 0,0 km/h (0 Bft)
30.10.2022 08:15 7,4 C 8,9 C 94 % 1019,8 hPa 0,0 l/m 0,0 km/h (0 Bft) N-NW 341 0 min 0,0 UV-I 62 W/m 6,5 C 7,4 C 0,0 km/h (0 Bft)
30.10.2022 08:18 7,1 C 8,3 C 93 % 1019,8 hPa 0,0 l/m 0,0 km/h (0 Bft) N-NW 341 0 min 0,0 UV-I 58 W/m 6,0 C 7,1 C 0,0 km/h (0 Bft)
30.10.2022 08:21 7,2 C 8,9 C 93 % 1019,7 hPa 0,0 l/m 0,0 km/h (0 Bft) N-NW 341 0 min 0,0 UV-I 63 W/m 6,1 C 7,2 C 0,0 km/h (0 Bft)
30.10.2022 08:24 7,3 C 8,9 C 93 % 1019,8 hPa 0,0 l/m 0,0 km/h (0 Bft) N-NW 341 0 min 0,0 UV-I 77 W/m 6,2 C 7,3 C 0,0 km/h (0 Bft)
30.10.2022 08:27 7,4 C 9,4 C 93 % 1019,8 hPa 0,0 l/m 0,0 km/h (0 Bft) N-NW 341 0 min 0,0 UV-I 89 W/m 6,3 C 7,4 C 0,0 km/h (0 Bft)
30.10.2022 08:30 7,4 C 9,4 C 93 % 1019,8 hPa 0,0 l/m 0,0 km/h (0 Bft) N-NW 341 0 min 0,0 UV-I 87 W/m 6,3 C 7,4 C 0,0 km/h (0 Bft)
30.10.2022 08:33 7,6 C 10,6 C 93 % 1019,9 hPa 0,0 l/m 0,0 km/h (0 Bft) N-NW 341 0 min 0,0 UV-I 84 W/m 6,5 C 7,6 C 0,0 km/h (0 Bft)
30.10.2022 08:36 7,9 C 10,6 C 93 % 1019,8 hPa 0,0 l/m 0,0 km/h (0 Bft) N-NW 341 0 min 0,0 UV-I 88 W/m 6,8 C 7,9 C 0,0 km/h (0 Bft)
30.10.2022 08:39 8,2 C 10,6 C 93 % 1019,8 hPa 0,0 l/m 0,0 km/h (0 Bft) N-NW 341 0 min 0,0 UV-I 70 W/m 7,1 C 8,2 C 0,0 km/h (0 Bft)
30.10.2022 08:42 8,1 C 10,6 C 92 % 1019,8 hPa 0,0 l/m 0,0 km/h (0 Bft) N-NW 341 0 min 0,0 UV-I 75 W/m 6,9 C 8,1 C 0,0 km/h (0 Bft)
30.10.2022 08:45 8,1 C 10,6 C 92 % 1019,8 hPa 0,0 l/m 0,0 km/h (0 Bft) N-NW 341 0 min 0,0 UV-I 85 W/m 6,9 C 8,1 C 0,0 km/h (0 Bft)
30.10.2022 08:48 8,3 C 11,1 C 92 % 1019,8 hPa 0,0 l/m 0,0 km/h (0 Bft) N-NW 341 0 min 0,0 UV-I 97 W/m 7,1 C 8,3 C 0,0 km/h (0 Bft)
30.10.2022 08:51 8,6 C 11,7 C 92 % 1019,9 hPa 0,0 l/m 0,0 km/h (0 Bft) N-NW 341 0 min 0,2 UV-I 116 W/m 7,4 C 8,6 C 0,0 km/h (0 Bft)
30.10.2022 08:54 8,8 C 12,2 C 92 % 1019,8 hPa 0,0 l/m 0,0 km/h (0 Bft) N-NW 337 0 min 0,5 UV-I 111 W/m 7,6 C 8,8 C 0,0 km/h (0 Bft)
30.10.2022 08:57 8,8 C 11,7 C 91 % 1019,9 hPa 0,0 l/m 0,0 km/h (0 Bft) N-NW 337 0 min 0,5 UV-I 112 W/m 7,4 C 8,8 C 0,0 km/h (0 Bft)
30.10.2022 09:00 9,1 C 11,7 C 91 % 1019,9 hPa 0,0 l/m 0,0 km/h (0 Bft) N-NW 337 0 min 0,5 UV-I 100 W/m 7,7 C 9,1 C 0,0 km/h (0 Bft)
30.10.2022 09:03 9,4 C 11,1 C 91 % 1019,9 hPa 0,0 l/m 0,0 km/h (0 Bft) N-NW 337 0 min 0,5 UV-I 114 W/m 8,0 C 9,4 C 0,0 km/h (0 Bft)
30.10.2022 09:06 9,7 C 11,1 C 90 % 1019,9 hPa 0,0 l/m 0,0 km/h (0 Bft) N-NW 337 0 min 0,5 UV-I 109 W/m 8,1 C 9,7 C 0,0 km/h (0 Bft)
30.10.2022 09:09 9,8 C 11,7 C 90 % 1019,8 hPa 0,0 l/m 0,0 km/h (0 Bft) N-NW 337 0 min 0,6 UV-I 119 W/m 8,2 C 9,8 C 0,0 km/h (0 Bft)
30.10.2022 09:12 9,9 C 12,2 C 90 % 1019,9 hPa 0,0 l/m 0,0 km/h (0 Bft) N-NW 337 0 min 0,6 UV-I 127 W/m 8,3 C 9,9 C 0,0 km/h (0 Bft)
30.10.2022 09:15 10,1 C 13,3 C 89 % 1019,9 hPa 0,0 l/m 0,0 km/h (0 Bft) N-NW 337 0 min 0,6 UV-I 129 W/m 8,4 C 10,1 C 0,0 km/h (0 Bft)
30.10.2022 09:18 10,4 C 15,0 C 90 % 1019,8 hPa 0,0 l/m 0,0 km/h (0 Bft) N-NW 337 0 min 0,6 UV-I 165 W/m 8,8 C 10,4 C 0,0 km/h (0 Bft)
30.10.2022 09:21 11,1 C 16,7 C 89 % 1019,8 hPa 0,0 l/m 0,0 km/h (0 Bft) N-NW 337 0 min 0,7 UV-I 167 W/m 9,4 C 11,1 C 0,0 km/h (0 Bft)
30.10.2022 09:24 11,6 C 18,3 C 88 % 1019,9 hPa 0,0 l/m 0,0 km/h (0 Bft) N-NW 337 0 min 0,7 UV-I 178 W/m 9,7 C 11,6 C 0,0 km/h (0 Bft)
30.10.2022 09:27 11,9 C 18,9 C 87 % 1020,0 hPa 0,0 l/m 0,0 km/h (0 Bft) N-NW 337 0 min 0,7 UV-I 182 W/m 9,8 C 11,9 C 0,0 km/h (0 Bft)
30.10.2022 09:30 12,1 C 18,3 C 86 % 1020,0 hPa 0,0 l/m 0,0 km/h (0 Bft) N-NW 337 0 min 0,7 UV-I 153 W/m 9,8 C 12,1 C 0,0 km/h (0 Bft)
30.10.2022 09:33 12,5 C 17,8 C 86 % 1020,1 hPa 0,0 l/m 0,0 km/h (0 Bft) N-NW 337 0 min 0,7 UV-I 144 W/m 10,2 C 12,5 C 0,0 km/h (0 Bft)
30.10.2022 09:36 12,9 C 17,2 C 84 % 1020,0 hPa 0,0 l/m 0,0 km/h (0 Bft) N-NW 337 0 min 0,8 UV-I 164 W/m 10,3 C 12,9 C 0,0 km/h (0 Bft)
30.10.2022 09:39 13,2 C 17,8 C 84 % 1020,0 hPa 0,0 l/m 0,7 km/h (0 Bft) SW 219 0 min 0,8 UV-I 175 W/m 10,6 C 13,2 C 3,2 km/h (1 Bft)
30.10.2022 09:42 13,3 C 17,2 C 82 % 1020,0 hPa 0,0 l/m 3,1 km/h (1 Bft) S 170 0 min 0,9 UV-I 171 W/m 10,3 C 13,3 C 6,4 km/h (2 Bft)
30.10.2022 09:45 13,3 C 17,8 C 82 % 1019,9 hPa 0,0 l/m 3,8 km/h (1 Bft) SO 135 0 min 0,9 UV-I 198 W/m 10,3 C 13,3 C 8,0 km/h (2 Bft)
30.10.2022 09:48 13,4 C 18,3 C 81 % 1020,0 hPa 0,0 l/m 3,0 km/h (1 Bft) SO 131 0 min 1,0 UV-I 232 W/m 10,2 C 13,4 C 6,4 km/h (2 Bft)
30.10.2022 09:51 13,7 C 18,9 C 81 % 1019,9 hPa 0,0 l/m 2,7 km/h (1 Bft) SO 132 0 min 1,0 UV-I 236 W/m 10,5 C 13,7 C 4,8 km/h (1 Bft)
30.10.2022 09:54 14,1 C 19,4 C 81 % 1019,9 hPa 0,0 l/m 4,4 km/h (1 Bft) SO 126 0 min 1,0 UV-I 231 W/m 10,9 C 14,1 C 11,3 km/h (2 Bft)
30.10.2022 09:57 14,3 C 18,3 C 80 % 1019,9 hPa 0,0 l/m 6,6 km/h (2 Bft) SO 140 0 min 1,0 UV-I 217 W/m 10,9 C 14,2 C 14,5 km/h (3 Bft)
30.10.2022 10:00 14,6 C 18,3 C 79 % 1019,9 hPa 0,0 l/m 6,7 km/h (2 Bft) SO 141 0 min 1,0 UV-I 215 W/m 11,0 C 14,4 C 12,9 km/h (3 Bft)
30.10.2022 10:03 14,8 C 18,9 C 78 % 1019,7 hPa 0,0 l/m 7,2 km/h (2 Bft) SO 128 0 min 1,1 UV-I 231 W/m 11,0 C 14,3 C 11,3 km/h (2 Bft)
30.10.2022 10:06 15,1 C 18,9 C 78 % 1019,7 hPa 0,0 l/m 8,2 km/h (2 Bft) SO 125 0 min 1,1 UV-I 239 W/m 11,3 C 14,1 C 12,9 km/h (3 Bft)
30.10.2022 10:09 15,2 C 18,9 C 77 % 1019,6 hPa 0,0 l/m 8,3 km/h (2 Bft) S-SO 155 0 min 1,1 UV-I 229 W/m 11,2 C 14,2 C 14,5 km/h (3 Bft)
30.10.2022 10:12 15,3 C 18,9 C 77 % 1019,7 hPa 0,0 l/m 7,8 km/h (2 Bft) SO 140 0 min 1,1 UV-I 230 W/m 11,3 C 14,5 C 14,5 km/h (3 Bft)
30.10.2022 10:15 15,4 C 19,4 C 76 % 1019,7 hPa 0,0 l/m 9,9 km/h (2 Bft) S-SO 148 0 min 1,2 UV-I 270 W/m 11,2 C 13,6 C 17,7 km/h (3 Bft)
30.10.2022 10:18 15,5 C 19,4 C 75 % 1019,7 hPa 0,0 l/m 9,2 km/h (2 Bft) S-SO 165 0 min 1,3 UV-I 283 W/m 11,1 C 14,0 C 16,1 km/h (3 Bft)
30.10.2022 10:21 15,6 C 18,9 C 75 % 1019,7 hPa 0,0 l/m 10,5 km/h (2 Bft) O-SO 122 0 min 1,2 UV-I 258 W/m 11,2 C 13,6 C 16,1 km/h (3 Bft)
30.10.2022 10:24 15,7 C 18,3 C 74 % 1019,7 hPa 0,0 l/m 9,2 km/h (2 Bft) SO 127 0 min 1,3 UV-I 238 W/m 11,1 C 14,3 C 16,1 km/h (3 Bft)
30.10.2022 10:27 15,6 C 18,3 C 74 % 1019,5 hPa 0,0 l/m 12,3 km/h (3 Bft) O-SO 107 0 min 1,2 UV-I 237 W/m 11,0 C 12,8 C 17,7 km/h (3 Bft)
30.10.2022 10:30 15,7 C 18,3 C 74 % 1019,7 hPa 0,0 l/m 10,1 km/h (2 Bft) SO 124 0 min 1,3 UV-I 239 W/m 11,1 C 13,8 C 16,1 km/h (3 Bft)
30.10.2022 10:33 15,8 C 18,9 C 73 % 1019,6 hPa 0,0 l/m 7,6 km/h (2 Bft) O-SO 123 0 min 1,3 UV-I 239 W/m 11,0 C 15,1 C 14,5 km/h (3 Bft)
30.10.2022 10:36 15,9 C 19,4 C 74 % 1019,6 hPa 0,0 l/m 8,2 km/h (2 Bft) SO 137 0 min 1,3 UV-I 264 W/m 11,3 C 14,9 C 14,5 km/h (3 Bft)
30.10.2022 10:39 16,1 C 21,1 C 74 % 1019,7 hPa 0,0 l/m 6,0 km/h (2 Bft) SO 127 3 min 1,4 UV-I 331 W/m 11,5 C 16,1 C 11,3 km/h (2 Bft)
30.10.2022 10:42 16,3 C 22,2 C 73 % 1019,6 hPa 0,0 l/m 5,8 km/h (2 Bft) SO 134 3 min 1,5 UV-I 354 W/m 11,4 C 16,3 C 9,7 km/h (2 Bft)
30.10.2022 10:45 16,6 C 22,2 C 72 % 1019,6 hPa 0,0 l/m 6,4 km/h (2 Bft) S-SO 148 3 min 1,5 UV-I 348 W/m 11,5 C 16,6 C 12,9 km/h (3 Bft)
30.10.2022 10:48 16,8 C 22,8 C 71 % 1019,7 hPa 0,0 l/m 5,6 km/h (1 Bft) SO 128 3 min 1,6 UV-I 365 W/m 11,5 C 16,8 C 11,3 km/h (2 Bft)
30.10.2022 10:51 17,0 C 23,9 C 70 % 1019,8 hPa 0,0 l/m 8,5 km/h (2 Bft) SO 136 3 min 1,6 UV-I 341 W/m 11,5 C 16,0 C 16,1 km/h (3 Bft)
30.10.2022 10:54 17,1 C 23,9 C 70 % 1019,7 hPa 0,0 l/m 6,3 km/h (2 Bft) S-SO 159 3 min 1,6 UV-I 342 W/m 11,6 C 17,1 C 11,3 km/h (2 Bft)
30.10.2022 10:57 17,1 C 23,3 C 70 % 1019,7 hPa 0,0 l/m 5,7 km/h (1 Bft) SO 136 3 min 1,6 UV-I 341 W/m 11,6 C 17,1 C 9,7 km/h (2 Bft)
30.10.2022 11:00 17,2 C 23,9 C 70 % 1019,8 hPa 0,0 l/m 5,3 km/h (1 Bft) S-SO 161 3 min 1,7 UV-I 348 W/m 11,7 C 17,2 C 11,3 km/h (2 Bft)
30.10.2022 11:03 17,4 C 23,9 C 69 % 1019,8 hPa 0,0 l/m 5,6 km/h (1 Bft) S 179 3 min 1,7 UV-I 337 W/m 11,7 C 17,4 C 9,7 km/h (2 Bft)
30.10.2022 11:06 17,5 C 22,8 C 69 % 1019,6 hPa 0,0 l/m 5,7 km/h (1 Bft) SO 141 3 min 1,6 UV-I 312 W/m 11,7 C 17,5 C 8,0 km/h (2 Bft)
30.10.2022 11:09 17,6 C 21,7 C 67 % 1019,7 hPa 0,0 l/m 8,2 km/h (2 Bft) S-SO 167 0 min 1,6 UV-I 281 W/m 11,4 C 16,7 C 17,7 km/h (3 Bft)
30.10.2022 11:12 17,6 C 21,1 C 65 % 1019,6 hPa 0,0 l/m 13,3 km/h (3 Bft) S 178 0 min 1,6 UV-I 273 W/m 10,9 C 14,8 C 20,9 km/h (4 Bft)
30.10.2022 11:15 17,6 C 21,1 C 65 % 1019,6 hPa 0,0 l/m 8,7 km/h (2 Bft) SO 146 0 min 1,5 UV-I 281 W/m 10,9 C 16,5 C 14,5 km/h (3 Bft)
30.10.2022 11:18 17,6 C 21,1 C 66 % 1019,7 hPa 0,0 l/m 10,1 km/h (2 Bft) SO 132 0 min 1,6 UV-I 287 W/m 11,2 C 16,0 C 16,1 km/h (3 Bft)
30.10.2022 11:21 17,6 C 21,1 C 66 % 1019,6 hPa 0,0 l/m 10,6 km/h (2 Bft) SO 138 0 min 1,6 UV-I 293 W/m 11,2 C 15,8 C 16,1 km/h (3 Bft)
30.10.2022 11:24 17,6 C 21,1 C 65 % 1019,6 hPa 0,0 l/m 10,8 km/h (2 Bft) SO 136 3 min 1,7 UV-I 304 W/m 10,9 C 15,7 C 19,3 km/h (3 Bft)
30.10.2022 11:27 17,6 C 20,6 C 65 % 1019,6 hPa 0,0 l/m 11,1 km/h (2 Bft) SO 140 0 min 1,5 UV-I 259 W/m 10,9 C 15,6 C 17,7 km/h (3 Bft)
30.10.2022 11:30 17,6 C 20,0 C 64 % 1019,7 hPa 0,0 l/m 9,4 km/h (2 Bft) SO 144 0 min 1,5 UV-I 228 W/m 10,7 C 16,2 C 14,5 km/h (3 Bft)
30.10.2022 11:33 17,6 C 20,0 C 65 % 1019,6 hPa 0,0 l/m 10,0 km/h (2 Bft) SO 132 0 min 1,6 UV-I 259 W/m 10,9 C 16,0 C 16,1 km/h (3 Bft)
30.10.2022 11:34 17,6 C 20,0 C 66 % 1019,6 hPa 0,0 l/m 8,0 km/h (2 Bft) SO 135 0 min 1,5 UV-I 254 W/m 11,2 C 16,8 C 12,9 km/h (3 Bft)
30.10.2022 11:35 17,6 C 20,6 C 66 % 1019,6 hPa 0,0 l/m 8,0 km/h (2 Bft) S-SO 157 0 min 1,6 UV-I 248 W/m 11,2 C 16,8 C 12,9 km/h (3 Bft)
30.10.2022 11:36 17,5 C 20,6 C 65 % 1019,6 hPa 0,0 l/m 14,5 km/h (3 Bft) S-SO 157 0 min 1,6 UV-I 267 W/m 10,8 C 14,4 C 17,7 km/h (3 Bft)
30.10.2022 11:39 17,5 C 20,6 C 65 % 1019,5 hPa 0,0 l/m 10,1 km/h (2 Bft) SO 126 0 min 1,7 UV-I 290 W/m 10,8 C 15,8 C 16,1 km/h (3 Bft)
30.10.2022 11:42 17,7 C 21,7 C 65 % 1019,4 hPa 0,0 l/m 10,2 km/h (2 Bft) S-SO 147 3 min 1,8 UV-I 359 W/m 11,0 C 16,0 C 16,1 km/h (3 Bft)
30.10.2022 11:45 17,8 C 22,2 C 65 % 1019,5 hPa 0,0 l/m 11,2 km/h (2 Bft) S-SO 153 3 min 1,9 UV-I 369 W/m 11,1 C 15,8 C 20,9 km/h (4 Bft)
30.10.2022 11:48 17,9 C 23,3 C 64 % 1019,5 hPa 0,0 l/m 9,6 km/h (2 Bft) S 171 3 min 2,0 UV-I 398 W/m 11,0 C 16,5 C 14,5 km/h (3 Bft)
30.10.2022 11:51 18,1 C 23,3 C 63 % 1019,4 hPa 0,0 l/m 11,4 km/h (2 Bft) S-SO 154 3 min 2,0 UV-I 403 W/m 10,9 C 16,0 C 17,7 km/h (3 Bft)
30.10.2022 11:54 18,1 C 23,3 C 63 % 1019,4 hPa 0,0 l/m 11,4 km/h (2 Bft) SO 145 3 min 2,0 UV-I 408 W/m 10,9 C 16,0 C 16,1 km/h (3 Bft)
30.10.2022 11:57 18,3 C 23,3 C 63 % 1019,4 hPa 0,0 l/m 11,2 km/h (2 Bft) S-SO 157 3 min 2,0 UV-I 411 W/m 11,1 C 16,3 C 16,1 km/h (3 Bft)
30.10.2022 12:00 18,3 C 23,3 C 62 % 1019,4 hPa 0,0 l/m 10,0 km/h (2 Bft) S-SO 156 3 min 2,0 UV-I 393 W/m 10,9 C 16,8 C 19,3 km/h (3 Bft)
30.10.2022 12:03 18,5 C 23,9 C 62 % 1019,4 hPa 0,0 l/m 12,4 km/h (3 Bft) S 174 3 min 2,1 UV-I 431 W/m 11,1 C 16,2 C 22,5 km/h (4 Bft)
30.10.2022 12:06 18,7 C 24,4 C 61 % 1019,4 hPa 0,0 l/m 11,7 km/h (2 Bft) S-SO 148 3 min 2,2 UV-I 459 W/m 11,0 C 16,6 C 17,7 km/h (3 Bft)
30.10.2022 12:09 18,8 C 24,4 C 60 % 1019,4 hPa 0,0 l/m 11,7 km/h (2 Bft) S-SO 150 3 min 2,1 UV-I 427 W/m 10,9 C 16,7 C 19,3 km/h (3 Bft)
30.10.2022 12:12 18,9 C 24,4 C 59 % 1019,3 hPa 0,0 l/m 11,2 km/h (2 Bft) S-SO 148 3 min 2,1 UV-I 423 W/m 10,7 C 17,0 C 16,1 km/h (3 Bft)
30.10.2022 12:15 19,0 C 23,9 C 59 % 1019,4 hPa 0,0 l/m 10,7 km/h (2 Bft) SO 139 3 min 2,0 UV-I 402 W/m 10,8 C 17,3 C 16,1 km/h (3 Bft)
30.10.2022 12:18 19,1 C 24,4 C 58 % 1019,5 hPa 0,0 l/m 8,6 km/h (2 Bft) SO 146 3 min 2,0 UV-I 382 W/m 10,6 C 18,2 C 12,9 km/h (3 Bft)
30.10.2022 12:21 19,1 C 23,3 C 58 % 1019,5 hPa 0,0 l/m 9,9 km/h (2 Bft) SO 144 3 min 1,9 UV-I 362 W/m 10,6 C 17,7 C 17,7 km/h (3 Bft)
30.10.2022 12:24 19,1 C 23,3 C 57 % 1019,4 hPa 0,0 l/m 13,1 km/h (3 Bft) S 170 3 min 2,1 UV-I 419 W/m 10,4 C 16,7 C 19,3 km/h (3 Bft)
30.10.2022 12:27 19,2 C 23,9 C 56 % 1019,4 hPa 0,0 l/m 10,9 km/h (2 Bft) SO 138 3 min 2,1 UV-I 427 W/m 10,2 C 17,5 C 17,7 km/h (3 Bft)
30.10.2022 12:30 19,3 C 24,4 C 56 % 1019,4 hPa 0,0 l/m 9,7 km/h (2 Bft) S-SO 156 3 min 2,1 UV-I 415 W/m 10,3 C 18,0 C 17,7 km/h (3 Bft)
30.10.2022 12:33 19,4 C 23,3 C 55 % 1019,3 hPa 0,0 l/m 12,4 km/h (3 Bft) S-SO 163 3 min 2,0 UV-I 389 W/m 10,1 C 17,2 C 19,3 km/h (3 Bft)
30.10.2022 12:36 19,3 C 22,8 C 53 % 1019,4 hPa 0,0 l/m 14,3 km/h (3 Bft) S-SO 147 3 min 1,9 UV-I 343 W/m 9,5 C 16,6 C 22,5 km/h (4 Bft)
30.10.2022 12:39 19,3 C 22,2 C 54 % 1019,3 hPa 0,0 l/m 9,5 km/h (2 Bft) S 188 0 min 1,7 UV-I 294 W/m 9,8 C 18,0 C 16,1 km/h (3 Bft)
30.10.2022 12:42 19,2 C 21,7 C 54 % 1019,3 hPa 0,0 l/m 11,2 km/h (2 Bft) S-SO 150 0 min 1,7 UV-I 278 W/m 9,7 C 17,4 C 22,5 km/h (4 Bft)
30.10.2022 12:45 19,2 C 21,7 C 53 % 1019,4 hPa 0,0 l/m 11,9 km/h (2 Bft) S 175 0 min 1,6 UV-I 272 W/m 9,4 C 17,1 C 19,3 km/h (3 Bft)
30.10.2022 12:48 19,1 C 21,7 C 53 % 1019,3 hPa 0,0 l/m 12,2 km/h (2 Bft) S-SW 212 0 min 1,7 UV-I 295 W/m 9,3 C 16,9 C 19,3 km/h (3 Bft)
30.10.2022 12:51 19,1 C 21,1 C 50 % 1019,4 hPa 0,0 l/m 14,7 km/h (3 Bft) S 188 0 min 1,6 UV-I 296 W/m 8,4 C 16,2 C 24,1 km/h (4 Bft)
30.10.2022 12:54 19,0 C 20,6 C 52 % 1019,3 hPa 0,0 l/m 13,8 km/h (3 Bft) S 188 0 min 1,6 UV-I 269 W/m 8,9 C 16,4 C 20,9 km/h (4 Bft)
30.10.2022 12:57 18,8 C 20,6 C 51 % 1019,4 hPa 0,0 l/m 16,3 km/h (3 Bft) SO 142 0 min 1,6 UV-I 266 W/m 8,4 C 15,5 C 25,7 km/h (4 Bft)
30.10.2022 13:00 18,8 C 20,6 C 53 % 1019,4 hPa 0,0 l/m 14,1 km/h (3 Bft) S-SO 165 0 min 1,6 UV-I 265 W/m 9,0 C 16,0 C 24,1 km/h (4 Bft)
30.10.2022 13:03 18,7 C 20,0 C 53 % 1019,5 hPa 0,0 l/m 15,5 km/h (3 Bft) S-SW 195 0 min 1,5 UV-I 247 W/m 8,9 C 15,5 C 24,1 km/h (4 Bft)
30.10.2022 13:06 18,5 C 19,4 C 53 % 1019,4 hPa 0,0 l/m 18,2 km/h (3 Bft) S-SW 211 0 min 1,5 UV-I 233 W/m 8,7 C 14,7 C 30,6 km/h (5 Bft)
30.10.2022 13:09 18,3 C 18,9 C 54 % 1019,5 hPa 0,0 l/m 16,1 km/h (3 Bft) S-SO 162 0 min 1,4 UV-I 232 W/m 8,8 C 14,9 C 25,7 km/h (4 Bft)
30.10.2022 13:12 18,2 C 18,9 C 56 % 1019,6 hPa 0,0 l/m 10,7 km/h (2 Bft) S 173 0 min 1,4 UV-I 220 W/m 9,3 C 16,4 C 17,7 km/h (3 Bft)
30.10.2022 13:15 18,2 C 19,4 C 57 % 1019,5 hPa 0,0 l/m 9,2 km/h (2 Bft) S-SW 200 0 min 1,4 UV-I 237 W/m 9,5 C 17,0 C 12,9 km/h (3 Bft)
30.10.2022 13:18 18,2 C 19,4 C 56 % 1019,4 hPa 0,0 l/m 12,0 km/h (2 Bft) S-SW 201 0 min 1,4 UV-I 251 W/m 9,3 C 16,0 C 17,7 km/h (3 Bft)
30.10.2022 13:21 18,3 C 20,0 C 58 % 1019,4 hPa 0,0 l/m 8,2 km/h (2 Bft) S 183 0 min 1,4 UV-I 246 W/m 9,9 C 17,5 C 12,9 km/h (3 Bft)
30.10.2022 13:24 18,3 C 20,0 C 57 % 1019,5 hPa 0,0 l/m 10,2 km/h (2 Bft) S 171 0 min 1,4 UV-I 244 W/m 9,6 C 16,7 C 19,3 km/h (3 Bft)
30.10.2022 13:27 18,3 C 20,0 C 56 % 1019,4 hPa 0,0 l/m 11,3 km/h (2 Bft) S 190 0 min 1,4 UV-I 255 W/m 9,4 C 16,3 C 17,7 km/h (3 Bft)
30.10.2022 13:30 18,3 C 20,0 C 57 % 1019,3 hPa 0,0 l/m 7,5 km/h (2 Bft) S-SO 166 0 min 1,4 UV-I 251 W/m 9,6 C 17,8 C 16,1 km/h (3 Bft)
30.10.2022 13:33 18,3 C 20,6 C 58 % 1019,3 hPa 0,0 l/m 7,0 km/h (2 Bft) SW 216 0 min 1,4 UV-I 257 W/m 9,9 C 18,0 C 9,7 km/h (2 Bft)
30.10.2022 13:36 18,4 C 21,1 C 58 % 1019,3 hPa 0,0 l/m 6,1 km/h (2 Bft) S 180 0 min 1,5 UV-I 270 W/m 10,0 C 18,4 C 14,5 km/h (3 Bft)
30.10.2022 13:39 18,4 C 21,1 C 59 % 1019,3 hPa 0,0 l/m 7,0 km/h (2 Bft) S 176 0 min 1,4 UV-I 269 W/m 10,2 C 18,1 C 11,3 km/h (2 Bft)
30.10.2022 13:42 18,4 C 20,6 C 58 % 1019,3 hPa 0,0 l/m 7,5 km/h (2 Bft) S-SW 205 0 min 1,4 UV-I 248 W/m 10,0 C 17,9 C 19,3 km/h (3 Bft)
30.10.2022 13:45 18,4 C 20,0 C 58 % 1019,4 hPa 0,0 l/m 8,5 km/h (2 Bft) S-SO 157 0 min 1,3 UV-I 219 W/m 10,0 C 17,5 C 14,5 km/h (3 Bft)
30.10.2022 13:48 18,3 C 19,4 C 59 % 1019,5 hPa 0,0 l/m 9,3 km/h (2 Bft) S 172 0 min 1,3 UV-I 202 W/m 10,1 C 17,0 C 14,5 km/h (3 Bft)
30.10.2022 13:51 18,1 C 18,9 C 59 % 1019,4 hPa 0,0 l/m 9,5 km/h (2 Bft) S 183 0 min 1,2 UV-I 189 W/m 10,0 C 16,7 C 14,5 km/h (3 Bft)
30.10.2022 13:54 18,1 C 18,9 C 61 % 1019,4 hPa 0,0 l/m 7,2 km/h (2 Bft) S 178 0 min 1,1 UV-I 178 W/m 10,5 C 17,7 C 12,9 km/h (3 Bft)
30.10.2022 13:57 17,9 C 18,9 C 61 % 1019,4 hPa 0,0 l/m 7,3 km/h (2 Bft) S 173 0 min 1,1 UV-I 181 W/m 10,3 C 17,5 C 14,5 km/h (3 Bft)
30.10.2022 14:00 17,9 C 18,9 C 62 % 1019,4 hPa 0,0 l/m 6,5 km/h (2 Bft) S 186 0 min 1,2 UV-I 200 W/m 10,5 C 17,9 C 9,7 km/h (2 Bft)
30.10.2022 14:03 17,9 C 19,4 C 62 % 1019,4 hPa 0,0 l/m 9,9 km/h (2 Bft) S-SW 205 0 min 1,2 UV-I 211 W/m 10,5 C 16,4 C 17,7 km/h (3 Bft)
30.10.2022 14:06 17,8 C 18,9 C 62 % 1019,4 hPa 0,0 l/m 11,0 km/h (2 Bft) S-SW 192 0 min 1,1 UV-I 198 W/m 10,4 C 15,8 C 19,3 km/h (3 Bft)
30.10.2022 14:09 17,6 C 18,3 C 62 % 1019,4 hPa 0,0 l/m 10,6 km/h (2 Bft) S-SW 199 0 min 1,1 UV-I 186 W/m 10,2 C 15,8 C 16,1 km/h (3 Bft)
30.10.2022 14:12 17,6 C 18,3 C 63 % 1019,4 hPa 0,0 l/m 11,0 km/h (2 Bft) S-SW 195 0 min 1,1 UV-I 187 W/m 10,5 C 15,6 C 19,3 km/h (3 Bft)
30.10.2022 14:15 17,6 C 18,3 C 63 % 1019,3 hPa 0,0 l/m 11,4 km/h (2 Bft) S-SW 207 0 min 1,1 UV-I 198 W/m 10,5 C 15,5 C 16,1 km/h (3 Bft)
30.10.2022 14:18 17,5 C 18,3 C 63 % 1019,3 hPa 0,0 l/m 11,8 km/h (2 Bft) S-SO 164 0 min 1,1 UV-I 203 W/m 10,4 C 15,2 C 17,7 km/h (3 Bft)
30.10.2022 14:21 17,5 C 18,3 C 64 % 1019,3 hPa 0,0 l/m 11,9 km/h (2 Bft) S-SW 212 0 min 1,1 UV-I 201 W/m 10,6 C 15,2 C 17,7 km/h (3 Bft)
30.10.2022 14:24 17,5 C 18,3 C 64 % 1019,3 hPa 0,0 l/m 10,6 km/h (2 Bft) S-SO 149 0 min 1,0 UV-I 195 W/m 10,6 C 15,6 C 17,7 km/h (3 Bft)
30.10.2022 14:27 17,4 C 18,3 C 65 % 1019,4 hPa 0,0 l/m 10,6 km/h (2 Bft) S-SW 198 0 min 1,0 UV-I 191 W/m 10,8 C 15,5 C 19,3 km/h (3 Bft)
30.10.2022 14:30 17,3 C 17,8 C 64 % 1019,5 hPa 0,0 l/m 12,4 km/h (3 Bft) S-SW 198 0 min 1,0 UV-I 179 W/m 10,4 C 14,8 C 19,3 km/h (3 Bft)
30.10.2022 14:33 17,3 C 17,8 C 64 % 1019,4 hPa 0,0 l/m 10,6 km/h (2 Bft) S 182 0 min 0,9 UV-I 164 W/m 10,4 C 15,4 C 19,3 km/h (3 Bft)
30.10.2022 14:36 17,2 C 17,2 C 64 % 1019,4 hPa 0,0 l/m 11,2 km/h (2 Bft) S 184 0 min 0,9 UV-I 155 W/m 10,3 C 15,1 C 19,3 km/h (3 Bft)
30.10.2022 14:39 17,1 C 17,2 C 65 % 1019,4 hPa 0,0 l/m 13,4 km/h (3 Bft) S 174 0 min 0,9 UV-I 154 W/m 10,5 C 14,2 C 17,7 km/h (3 Bft)
30.10.2022 14:42 17,1 C 17,8 C 63 % 1019,5 hPa 0,0 l/m 15,6 km/h (3 Bft) S-SW 210 0 min 0,9 UV-I 169 W/m 10,0 C 13,6 C 24,1 km/h (4 Bft)
30.10.2022 14:45 17,1 C 17,8 C 63 % 1019,3 hPa 0,0 l/m 13,0 km/h (3 Bft) S 184 0 min 0,9 UV-I 184 W/m 10,0 C 14,4 C 24,1 km/h (4 Bft)
30.10.2022 14:48 17,1 C 18,3 C 64 % 1019,3 hPa 0,0 l/m 10,0 km/h (2 Bft) S-SW 193 0 min 0,9 UV-I 180 W/m 10,2 C 15,4 C 14,5 km/h (3 Bft)
30.10.2022 14:51 17,1 C 18,3 C 64 % 1019,3 hPa 0,0 l/m 10,8 km/h (2 Bft) S 169 0 min 0,9 UV-I 206 W/m 10,2 C 15,1 C 19,3 km/h (3 Bft)
30.10.2022 14:54 17,2 C 19,4 C 65 % 1019,3 hPa 0,0 l/m 10,1 km/h (2 Bft) S-SO 162 0 min 0,9 UV-I 240 W/m 10,6 C 15,5 C 22,5 km/h (4 Bft)
30.10.2022 14:57 17,2 C 18,9 C 64 % 1019,3 hPa 0,0 l/m 9,7 km/h (2 Bft) S-SO 165 0 min 0,9 UV-I 208 W/m 10,3 C 15,7 C 17,7 km/h (3 Bft)
30.10.2022 15:00 17,3 C 18,9 C 64 % 1019,2 hPa 0,0 l/m 9,5 km/h (2 Bft) S-SW 192 0 min 0,9 UV-I 202 W/m 10,4 C 15,9 C 19,3 km/h (3 Bft)
30.10.2022 15:03 17,3 C 18,9 C 64 % 1019,2 hPa 0,0 l/m 10,6 km/h (2 Bft) S-SO 160 0 min 0,9 UV-I 225 W/m 10,4 C 15,4 C 16,1 km/h (3 Bft)
30.10.2022 15:06 17,3 C 19,4 C 64 % 1019,1 hPa 0,0 l/m 11,0 km/h (2 Bft) S-SO 161 0 min 0,9 UV-I 250 W/m 10,4 C 15,3 C 16,1 km/h (3 Bft)
30.10.2022 15:09 17,4 C 20,0 C 64 % 1019,1 hPa 0,0 l/m 9,7 km/h (2 Bft) S-SO 153 0 min 0,9 UV-I 235 W/m 10,5 C 15,9 C 14,5 km/h (3 Bft)
30.10.2022 15:12 17,4 C 19,4 C 63 % 1018,9 hPa 0,0 l/m 8,8 km/h (2 Bft) SO 141 0 min 0,8 UV-I 208 W/m 10,3 C 16,3 C 17,7 km/h (3 Bft)
30.10.2022 15:15 17,3 C 19,4 C 63 % 1019,0 hPa 0,0 l/m 12,1 km/h (2 Bft) S-SO 152 0 min 0,8 UV-I 225 W/m 10,2 C 14,9 C 19,3 km/h (3 Bft)
30.10.2022 15:18 17,4 C 19,4 C 64 % 1019,1 hPa 0,0 l/m 7,3 km/h (2 Bft) S-SO 167 0 min 0,8 UV-I 208 W/m 10,5 C 17,0 C 11,3 km/h (2 Bft)
30.10.2022 15:21 17,4 C 19,4 C 65 % 1019,0 hPa 0,0 l/m 5,9 km/h (2 Bft) S-SW 207 0 min 0,7 UV-I 178 W/m 10,8 C 17,4 C 11,3 km/h (2 Bft)
30.10.2022 15:24 17,4 C 18,9 C 65 % 1019,1 hPa 0,0 l/m 7,9 km/h (2 Bft) S-SW 193 0 min 0,7 UV-I 139 W/m 10,8 C 16,7 C 9,7 km/h (2 Bft)
30.10.2022 15:27 17,3 C 17,8 C 65 % 1018,9 hPa 0,0 l/m 8,4 km/h (2 Bft) S-SW 196 0 min 0,6 UV-I 124 W/m 10,7 C 16,3 C 12,9 km/h (3 Bft)
30.10.2022 15:30 17,2 C 17,8 C 65 % 1019,1 hPa 0,0 l/m 9,0 km/h (2 Bft) S-SW 207 0 min 0,6 UV-I 131 W/m 10,6 C 16,0 C 12,9 km/h (3 Bft)
30.10.2022 15:33 17,1 C 17,8 C 66 % 1019,1 hPa 0,0 l/m 8,1 km/h (2 Bft) S 190 0 min 0,6 UV-I 134 W/m 10,7 C 16,3 C 11,3 km/h (2 Bft)
30.10.2022 15:36 17,1 C 18,3 C 66 % 1019,2 hPa 0,0 l/m 9,2 km/h (2 Bft) S 188 0 min 0,6 UV-I 156 W/m 10,7 C 15,8 C 12,9 km/h (3 Bft)
30.10.2022 15:39 17,1 C 18,9 C 66 % 1019,2 hPa 0,0 l/m 9,3 km/h (2 Bft) S 174 0 min 0,6 UV-I 166 W/m 10,7 C 15,7 C 17,7 km/h (3 Bft)
30.10.2022 15:42 17,2 C 17,8 C 66 % 1019,2 hPa 0,0 l/m 8,2 km/h (2 Bft) S-SW 200 0 min 0,5 UV-I 152 W/m 10,8 C 16,3 C 16,1 km/h (3 Bft)
30.10.2022 15:45 17,2 C 17,8 C 66 % 1019,2 hPa 0,0 l/m 8,1 km/h (2 Bft) S 185 0 min 0,5 UV-I 160 W/m 10,8 C 16,4 C 12,9 km/h (3 Bft)
30.10.2022 15:48 17,2 C 17,8 C 66 % 1019,3 hPa 0,0 l/m 8,4 km/h (2 Bft) S 177 0 min 0,5 UV-I 202 W/m 10,8 C 16,2 C 11,3 km/h (2 Bft)
30.10.2022 15:51 17,3 C 19,4 C 66 % 1019,2 hPa 0,0 l/m 10,1 km/h (2 Bft) S-SW 199 0 min 0,5 UV-I 206 W/m 10,9 C 15,6 C 19,3 km/h (3 Bft)
30.10.2022 15:54 17,3 C 20,0 C 66 % 1019,3 hPa 0,0 l/m 10,8 km/h (2 Bft) S-SO 155 0 min 0,5 UV-I 188 W/m 10,9 C 15,4 C 19,3 km/h (3 Bft)
30.10.2022 15:57 17,2 C 19,4 C 67 % 1019,3 hPa 0,0 l/m 9,2 km/h (2 Bft) S-SO 167 0 min 0,5 UV-I 161 W/m 11,0 C 15,9 C 16,1 km/h (3 Bft)
30.10.2022 16:00 17,1 C 18,9 C 67 % 1019,4 hPa 0,0 l/m 12,1 km/h (2 Bft) S 179 0 min 0,4 UV-I 150 W/m 10,9 C 14,7 C 19,3 km/h (3 Bft)
30.10.2022 16:03 17,1 C 19,4 C 67 % 1019,3 hPa 0,0 l/m 9,5 km/h (2 Bft) S-SO 163 0 min 0,0 UV-I 158 W/m 10,9 C 15,6 C 17,7 km/h (3 Bft)
30.10.2022 16:06 17,0 C 18,9 C 67 % 1019,4 hPa 0,0 l/m 10,8 km/h (2 Bft) S-SW 199 0 min 0,0 UV-I 142 W/m 10,8 C 15,0 C 17,7 km/h (3 Bft)
30.10.2022 16:09 16,9 C 18,3 C 67 % 1019,4 hPa 0,0 l/m 10,3 km/h (2 Bft) S 175 0 min 0,0 UV-I 136 W/m 10,7 C 15,1 C 17,7 km/h (3 Bft)
30.10.2022 16:12 16,9 C 18,3 C 68 % 1019,4 hPa 0,0 l/m 8,2 km/h (2 Bft) S-SW 208 0 min 0,0 UV-I 123 W/m 11,0 C 16,0 C 11,3 km/h (2 Bft)
30.10.2022 16:15 16,8 C 18,3 C 68 % 1019,4 hPa 0,0 l/m 8,9 km/h (2 Bft) S 186 0 min 0,0 UV-I 112 W/m 10,9 C 15,6 C 12,9 km/h (3 Bft)
30.10.2022 16:18 16,7 C 17,8 C 68 % 1019,4 hPa 0,0 l/m 9,3 km/h (2 Bft) S-SO 165 0 min 0,0 UV-I 98 W/m 10,8 C 15,3 C 16,1 km/h (3 Bft)
30.10.2022 16:21 16,6 C 16,7 C 68 % 1019,4 hPa 0,0 l/m 11,2 km/h (2 Bft) S-SW 201 0 min 0,0 UV-I 77 W/m 10,7 C 14,4 C 17,7 km/h (3 Bft)
30.10.2022 16:24 16,5 C 16,1 C 68 % 1019,4 hPa 0,0 l/m 11,3 km/h (2 Bft) S-SO 162 0 min 0,0 UV-I 65 W/m 10,6 C 14,3 C 17,7 km/h (3 Bft)
30.10.2022 16:27 16,4 C 16,1 C 68 % 1019,4 hPa 0,0 l/m 13,4 km/h (3 Bft) S-SW 196 0 min 0,0 UV-I 56 W/m 10,5 C 13,4 C 27,4 km/h (4 Bft)
30.10.2022 16:30 16,3 C 15,6 C 69 % 1019,5 hPa 0,0 l/m 9,0 km/h (2 Bft) S-SW 209 0 min 0,0 UV-I 48 W/m 10,6 C 15,0 C 12,9 km/h (3 Bft)
30.10.2022 16:33 16,1 C 15,0 C 69 % 1019,5 hPa 0,0 l/m 9,3 km/h (2 Bft) S 183 0 min 0,0 UV-I 41 W/m 10,4 C 14,6 C 14,5 km/h (3 Bft)
30.10.2022 16:36 16,0 C 15,0 C 70 % 1019,5 hPa 0,0 l/m 9,2 km/h (2 Bft) S 175 0 min 0,0 UV-I 37 W/m 10,5 C 14,6 C 14,5 km/h (3 Bft)
30.10.2022 16:39 15,9 C 15,0 C 70 % 1019,5 hPa 0,0 l/m 11,3 km/h (2 Bft) S-SO 165 0 min 0,0 UV-I 35 W/m 10,4 C 13,6 C 17,7 km/h (3 Bft)
30.10.2022 16:42 15,9 C 14,4 C 70 % 1019,5 hPa 0,0 l/m 8,4 km/h (2 Bft) S-SW 198 0 min 0,0 UV-I 33 W/m 10,4 C 14,8 C 14,5 km/h (3 Bft)
30.10.2022 16:45 15,7 C 14,4 C 71 % 1019,5 hPa 0,0 l/m 8,5 km/h (2 Bft) S-SO 165 0 min 0,0 UV-I 31 W/m 10,5 C 14,6 C 14,5 km/h (3 Bft)
30.10.2022 16:48 15,7 C 14,4 C 71 % 1019,5 hPa 0,0 l/m 11,5 km/h (2 Bft) S-SW 198 0 min 0,0 UV-I 28 W/m 10,5 C 13,3 C 19,3 km/h (3 Bft)
30.10.2022 16:51 15,6 C 14,4 C 72 % 1019,6 hPa 0,0 l/m 11,7 km/h (2 Bft) S 188 0 min 0,0 UV-I 26 W/m 10,6 C 13,1 C 17,7 km/h (3 Bft)
30.10.2022 16:54 15,6 C 13,9 C 72 % 1019,6 hPa 0,0 l/m 9,4 km/h (2 Bft) S-SW 192 0 min 0,0 UV-I 25 W/m 10,6 C 14,1 C 14,5 km/h (3 Bft)
30.10.2022 16:57 15,4 C 13,9 C 72 % 1019,7 hPa 0,0 l/m 10,0 km/h (2 Bft) S-SW 192 0 min 0,0 UV-I 23 W/m 10,4 C 13,6 C 17,7 km/h (3 Bft)
30.10.2022 17:00 15,4 C 13,9 C 73 % 1019,8 hPa 0,0 l/m 9,9 km/h (2 Bft) S 183 0 min 0,0 UV-I 20 W/m 10,6 C 13,6 C 14,5 km/h (3 Bft)
30.10.2022 17:03 15,3 C 13,9 C 73 % 1019,8 hPa 0,0 l/m 7,4 km/h (2 Bft) S-SW 200 0 min 0,0 UV-I 17 W/m 10,5 C 14,7 C 11,3 km/h (2 Bft)
30.10.2022 17:06 15,2 C 13,9 C 73 % 1019,8 hPa 0,0 l/m 8,5 km/h (2 Bft) S 184 0 min 0,0 UV-I 12 W/m 10,4 C 14,1 C 14,5 km/h (3 Bft)
30.10.2022 17:09 15,2 C 13,3 C 73 % 1019,9 hPa 0,0 l/m 8,6 km/h (2 Bft) SW 214 0 min 0,0 UV-I 8 W/m 10,4 C 14,0 C 14,5 km/h (3 Bft)
30.10.2022 17:12 15,0 C 13,3 C 74 % 1020,0 hPa 0,0 l/m 9,3 km/h (2 Bft) S-SW 205 0 min 0,0 UV-I 5 W/m 10,4 C 13,4 C 14,5 km/h (3 Bft)
30.10.2022 17:15 14,8 C 12,8 C 74 % 1020,0 hPa 0,0 l/m 8,6 km/h (2 Bft) S 189 0 min 0,0 UV-I 2 W/m 10,2 C 13,6 C 12,9 km/h (3 Bft)
30.10.2022 17:18 14,8 C 12,8 C 75 % 1020,0 hPa 0,0 l/m 8,4 km/h (2 Bft) S-SW 196 0 min 0,0 UV-I 0 W/m 10,4 C 13,7 C 12,9 km/h (3 Bft)
30.10.2022 17:21 14,6 C 12,8 C 75 % 1020,1 hPa 0,0 l/m 8,9 km/h (2 Bft) S-SW 205 0 min 0,0 UV-I 0 W/m 10,2 C 13,2 C 12,9 km/h (3 Bft)
30.10.2022 17:24 14,4 C 12,8 C 76 % 1020,1 hPa 0,0 l/m 9,5 km/h (2 Bft) S-SW 209 0 min 0,0 UV-I 0 W/m 10,2 C 12,7 C 12,9 km/h (3 Bft)
30.10.2022 17:27 14,4 C 12,8 C 76 % 1020,1 hPa 0,0 l/m 8,8 km/h (2 Bft) S-SW 206 0 min 0,0 UV-I 0 W/m 10,2 C 13,0 C 11,3 km/h (2 Bft)
30.10.2022 17:30 14,4 C 12,8 C 76 % 1020,3 hPa 0,0 l/m 9,2 km/h (2 Bft) S-SW 205 0 min 0,0 UV-I 0 W/m 10,2 C 12,8 C 12,9 km/h (3 Bft)
30.10.2022 17:33 14,3 C 12,2 C 76 % 1020,3 hPa 0,0 l/m 9,8 km/h (2 Bft) S-SW 205 0 min 0,0 UV-I 0 W/m 10,1 C 12,4 C 12,9 km/h (3 Bft)
30.10.2022 17:36 14,2 C 12,2 C 76 % 1020,3 hPa 0,0 l/m 7,7 km/h (2 Bft) S-SW 194 0 min 0,0 UV-I 0 W/m 10,0 C 13,4 C 11,3 km/h (2 Bft)
30.10.2022 17:39 14,2 C 12,2 C 76 % 1020,3 hPa 0,0 l/m 9,5 km/h (2 Bft) S-SW 204 0 min 0,0 UV-I 0 W/m 10,0 C 12,5 C 12,9 km/h (3 Bft)
30.10.2022 17:42 14,1 C 12,2 C 77 % 1020,3 hPa 0,0 l/m 9,4 km/h (2 Bft) S 189 0 min 0,0 UV-I 0 W/m 10,1 C 12,4 C 14,5 km/h (3 Bft)
30.10.2022 17:45 14,0 C 12,2 C 77 % 1020,3 hPa 0,0 l/m 8,8 km/h (2 Bft) S 175 0 min 0,0 UV-I 0 W/m 10,0 C 12,6 C 11,3 km/h (2 Bft)
30.10.2022 17:48 13,9 C 11,7 C 77 % 1020,2 hPa 0,0 l/m 7,0 km/h (2 Bft) S-SW 194 0 min 0,0 UV-I 0 W/m 9,9 C 13,5 C 11,3 km/h (2 Bft)
30.10.2022 17:51 13,8 C 11,7 C 77 % 1020,3 hPa 0,0 l/m 5,8 km/h (2 Bft) S-SW 198 0 min 0,0 UV-I 0 W/m 9,8 C 13,8 C 9,7 km/h (2 Bft)
30.10.2022 17:54 13,7 C 11,7 C 78 % 1020,3 hPa 0,0 l/m 5,6 km/h (1 Bft) S 172 0 min 0,0 UV-I 0 W/m 9,9 C 13,7 C 11,3 km/h (2 Bft)
30.10.2022 17:57 13,8 C 11,7 C 78 % 1020,4 hPa 0,0 l/m 6,3 km/h (2 Bft) S 175 0 min 0,0 UV-I 0 W/m 10,0 C 13,8 C 11,3 km/h (2 Bft)
30.10.2022 18:00 13,8 C 11,7 C 77 % 1020,4 hPa 0,0 l/m 7,1 km/h (2 Bft) S-SO 163 0 min 0,0 UV-I 0 W/m 9,8 C 13,4 C 11,3 km/h (2 Bft)
30.10.2022 18:03 13,9 C 12,2 C 77 % 1020,4 hPa 0,0 l/m 6,6 km/h (2 Bft) S-SO 167 0 min 0,0 UV-I 0 W/m 9,9 C 13,8 C 14,5 km/h (3 Bft)
30.10.2022 18:06 13,9 C 11,7 C 77 % 1020,5 hPa 0,0 l/m 7,6 km/h (2 Bft) S 184 0 min 0,0 UV-I 0 W/m 9,9 C 13,2 C 12,9 km/h (3 Bft)
30.10.2022 18:09 14,1 C 12,2 C 77 % 1020,5 hPa 0,0 l/m 7,3 km/h (2 Bft) S 169 0 min 0,0 UV-I 0 W/m 10,1 C 13,6 C 11,3 km/h (2 Bft)
30.10.2022 18:12 14,2 C 12,2 C 76 % 1020,6 hPa 0,0 l/m 8,3 km/h (2 Bft) S 177 0 min 0,0 UV-I 0 W/m 10,0 C 13,1 C 11,3 km/h (2 Bft)
30.10.2022 18:15 14,3 C 12,8 C 76 % 1020,6 hPa 0,0 l/m 6,7 km/h (2 Bft) S 184 0 min 0,0 UV-I 0 W/m 10,1 C 14,1 C 9,7 km/h (2 Bft)
30.10.2022 18:18 14,2 C 12,8 C 76 % 1020,7 hPa 0,0 l/m 7,4 km/h (2 Bft) S-SW 205 0 min 0,0 UV-I 0 W/m 10,0 C 13,6 C 14,5 km/h (3 Bft)
30.10.2022 18:21 14,2 C 12,8 C 76 % 1020,6 hPa 0,0 l/m 5,2 km/h (1 Bft) S-SW 205 0 min 0,0 UV-I 0 W/m 10,0 C 14,2 C 9,7 km/h (2 Bft)
30.10.2022 18:24 14,2 C 12,2 C 76 % 1020,6 hPa 0,0 l/m 3,9 km/h (1 Bft) S-SW 194 0 min 0,0 UV-I 0 W/m 10,0 C 14,2 C 6,4 km/h (2 Bft)
30.10.2022 18:27 14,1 C 12,2 C 76 % 1020,8 hPa 0,0 l/m 4,2 km/h (1 Bft) S-SW 207 0 min 0,0 UV-I 0 W/m 9,9 C 14,1 C 8,0 km/h (2 Bft)
30.10.2022 18:30 14,1 C 12,2 C 76 % 1020,8 hPa 0,0 l/m 6,2 km/h (2 Bft) S-SW 204 0 min 0,0 UV-I 0 W/m 9,9 C 14,1 C 8,0 km/h (2 Bft)
30.10.2022 18:33 14,1 C 12,2 C 76 % 1020,8 hPa 0,0 l/m 7,2 km/h (2 Bft) S-SW 194 0 min 0,0 UV-I 0 W/m 9,9 C 13,6 C 14,5 km/h (3 Bft)
30.10.2022 18:36 14,2 C 12,2 C 76 % 1020,8 hPa 0,0 l/m 5,5 km/h (1 Bft) SW 216 0 min 0,0 UV-I 0 W/m 10,0 C 14,2 C 11,3 km/h (2 Bft)
30.10.2022 18:39 14,1 C 12,2 C 77 % 1020,9 hPa 0,0 l/m 5,4 km/h (1 Bft) S-SW 208 0 min 0,0 UV-I 0 W/m 10,1 C 14,1 C 9,7 km/h (2 Bft)
30.10.2022 18:42 13,9 C 12,2 C 77 % 1020,9 hPa 0,0 l/m 3,5 km/h (1 Bft) S-SW 202 0 min 0,0 UV-I 0 W/m 9,9 C 13,9 C 6,4 km/h (2 Bft)
30.10.2022 18:45 13,9 C 12,2 C 77 % 1020,8 hPa 0,0 l/m 3,2 km/h (1 Bft) SW 234 0 min 0,0 UV-I 0 W/m 9,9 C 13,9 C 6,4 km/h (2 Bft)
30.10.2022 18:48 13,9 C 11,7 C 77 % 1020,9 hPa 0,0 l/m 3,3 km/h (1 Bft) SW 232 0 min 0,0 UV-I 0 W/m 9,9 C 13,9 C 4,8 km/h (1 Bft)
30.10.2022 18:51 13,8 C 11,7 C 77 % 1020,9 hPa 0,0 l/m 4,0 km/h (1 Bft) S-SW 192 0 min 0,0 UV-I 0 W/m 9,8 C 13,8 C 8,0 km/h (2 Bft)
30.10.2022 18:54 13,8 C 11,7 C 77 % 1020,8 hPa 0,0 l/m 3,7 km/h (1 Bft) S 186 0 min 0,0 UV-I 0 W/m 9,8 C 13,8 C 6,4 km/h (2 Bft)
30.10.2022 18:57 13,7 C 11,1 C 78 % 1020,9 hPa 0,0 l/m 2,6 km/h (1 Bft) S 189 0 min 0,0 UV-I 0 W/m 9,9 C 13,7 C 6,4 km/h (2 Bft)
30.10.2022 19:00 13,8 C 11,7 C 77 % 1020,9 hPa 0,0 l/m 4,1 km/h (1 Bft) S-SW 205 0 min 0,0 UV-I 0 W/m 9,8 C 13,8 C 6,4 km/h (2 Bft)
30.10.2022 19:03 13,8 C 11,7 C 77 % 1020,9 hPa 0,0 l/m 4,5 km/h (1 Bft) S-SW 196 0 min 0,0 UV-I 0 W/m 9,8 C 13,8 C 8,0 km/h (2 Bft)
30.10.2022 19:06 13,8 C 11,1 C 77 % 1021,0 hPa 0,0 l/m 4,4 km/h (1 Bft) SW 224 0 min 0,0 UV-I 0 W/m 9,8 C 13,8 C 6,4 km/h (2 Bft)
30.10.2022 19:09 13,7 C 11,7 C 77 % 1020,9 hPa 0,0 l/m 4,3 km/h (1 Bft) S-SW 205 0 min 0,0 UV-I 0 W/m 9,7 C 13,7 C 8,0 km/h (2 Bft)
30.10.2022 19:12 13,7 C 11,1 C 77 % 1020,9 hPa 0,0 l/m 2,5 km/h (1 Bft) S-SW 205 0 min 0,0 UV-I 0 W/m 9,7 C 13,7 C 4,8 km/h (1 Bft)
30.10.2022 19:15 13,6 C 11,1 C 77 % 1020,9 hPa 0,0 l/m 3,9 km/h (1 Bft) S-SW 201 0 min 0,0 UV-I 0 W/m 9,6 C 13,6 C 6,4 km/h (2 Bft)
30.10.2022 19:18 13,6 C 11,1 C 78 % 1020,9 hPa 0,0 l/m 3,4 km/h (1 Bft) S-SW 201 0 min 0,0 UV-I 0 W/m 9,8 C 13,6 C 6,4 km/h (2 Bft)
30.10.2022 19:21 13,5 C 11,1 C 78 % 1021,0 hPa 0,0 l/m 4,8 km/h (1 Bft) S-SW 205 0 min 0,0 UV-I 0 W/m 9,7 C 13,5 C 8,0 km/h (2 Bft)
30.10.2022 19:24 13,4 C 11,1 C 78 % 1021,1 hPa 0,0 l/m 6,3 km/h (2 Bft) S 191 0 min 0,0 UV-I 0 W/m 9,6 C 13,4 C 9,7 km/h (2 Bft)
30.10.2022 19:27 13,4 C 11,7 C 78 % 1021,1 hPa 0,0 l/m 7,2 km/h (2 Bft) SW 217 0 min 0,0 UV-I 0 W/m 9,6 C 12,9 C 9,7 km/h (2 Bft)
30.10.2022 19:30 13,3 C 11,7 C 79 % 1021,1 hPa 0,0 l/m 7,5 km/h (2 Bft) S-SW 200 0 min 0,0 UV-I 0 W/m 9,7 C 12,6 C 12,9 km/h (3 Bft)
30.10.2022 19:33 13,4 C 11,7 C 79 % 1021,1 hPa 0,0 l/m 9,0 km/h (2 Bft) S-SW 192 0 min 0,0 UV-I 0 W/m 9,8 C 11,9 C 14,5 km/h (3 Bft)
30.10.2022 19:36 13,5 C 12,2 C 78 % 1021,2 hPa 0,0 l/m 9,4 km/h (2 Bft) S-SW 202 0 min 0,0 UV-I 0 W/m 9,7 C 11,8 C 14,5 km/h (3 Bft)
30.10.2022 19:39 13,6 C 12,2 C 78 % 1021,2 hPa 0,0 l/m 8,6 km/h (2 Bft) S-SW 194 0 min 0,0 UV-I 0 W/m 9,8 C 12,3 C 12,9 km/h (3 Bft)
30.10.2022 19:42 13,7 C 12,2 C 78 % 1021,1 hPa 0,0 l/m 9,6 km/h (2 Bft) S 188 0 min 0,0 UV-I 0 W/m 9,9 C 11,9 C 16,1 km/h (3 Bft)
30.10.2022 19:45 13,8 C 12,8 C 78 % 1021,2 hPa 0,0 l/m 8,5 km/h (2 Bft) S 178 0 min 0,0 UV-I 0 W/m 10,0 C 12,6 C 14,5 km/h (3 Bft)
30.10.2022 19:48 13,8 C 12,8 C 78 % 1021,2 hPa 0,0 l/m 8,8 km/h (2 Bft) S-SW 200 0 min 0,0 UV-I 0 W/m 10,0 C 12,4 C 14,5 km/h (3 Bft)
30.10.2022 19:51 13,8 C 12,8 C 77 % 1021,3 hPa 0,0 l/m 9,3 km/h (2 Bft) W-SW 238 0 min 0,0 UV-I 0 W/m 9,8 C 12,1 C 14,5 km/h (3 Bft)
30.10.2022 19:54 13,8 C 12,8 C 77 % 1021,3 hPa 0,0 l/m 7,8 km/h (2 Bft) SW 232 0 min 0,0 UV-I 0 W/m 9,8 C 13,0 C 12,9 km/h (3 Bft)
30.10.2022 19:57 13,8 C 12,8 C 77 % 1021,3 hPa 0,0 l/m 9,5 km/h (2 Bft) SW 226 0 min 0,0 UV-I 0 W/m 9,8 C 12,0 C 16,1 km/h (3 Bft)
30.10.2022 20:00 13,8 C 12,8 C 77 % 1021,3 hPa 0,0 l/m 9,2 km/h (2 Bft) SW 232 0 min 0,0 UV-I 0 W/m 9,8 C 12,2 C 14,5 km/h (3 Bft)
30.10.2022 20:03 13,7 C 12,2 C 78 % 1021,4 hPa 0,0 l/m 7,5 km/h (2 Bft) S-SW 200 0 min 0,0 UV-I 0 W/m 9,9 C 13,0 C 12,9 km/h (3 Bft)
30.10.2022 20:06 13,7 C 12,2 C 78 % 1021,4 hPa 0,0 l/m 6,1 km/h (2 Bft) SW 227 0 min 0,0 UV-I 0 W/m 9,9 C 13,7 C 14,5 km/h (3 Bft)
30.10.2022 20:09 13,6 C 12,2 C 78 % 1021,3 hPa 0,0 l/m 5,1 km/h (1 Bft) S-SW 213 0 min 0,0 UV-I 0 W/m 9,8 C 13,6 C 11,3 km/h (2 Bft)
30.10.2022 20:12 13,4 C 12,2 C 78 % 1021,4 hPa 0,0 l/m 6,0 km/h (2 Bft) S-SW 195 0 min 0,0 UV-I 0 W/m 9,6 C 13,4 C 9,7 km/h (2 Bft)
30.10.2022 20:15 13,3 C 11,7 C 79 % 1021,4 hPa 0,0 l/m 4,3 km/h (1 Bft) S 188 0 min 0,0 UV-I 0 W/m 9,7 C 13,3 C 8,0 km/h (2 Bft)
30.10.2022 20:18 13,1 C 11,7 C 79 % 1021,3 hPa 0,0 l/m 2,9 km/h (1 Bft) S 188 0 min 0,0 UV-I 0 W/m 9,5 C 13,1 C 4,8 km/h (1 Bft)
30.10.2022 20:21 12,9 C 11,1 C 80 % 1021,2 hPa 0,0 l/m 3,7 km/h (1 Bft) S-SW 202 0 min 0,0 UV-I 0 W/m 9,5 C 12,9 C 6,4 km/h (2 Bft)
30.10.2022 20:24 12,8 C 11,1 C 80 % 1021,3 hPa 0,0 l/m 3,5 km/h (1 Bft) S-SW 203 0 min 0,0 UV-I 0 W/m 9,4 C 12,8 C 4,8 km/h (1 Bft)
30.10.2022 20:27 12,8 C 10,6 C 81 % 1021,4 hPa 0,0 l/m 3,0 km/h (1 Bft) S-SW 195 0 min 0,0 UV-I 0 W/m 9,6 C 12,8 C 6,4 km/h (2 Bft)
30.10.2022 20:30 12,7 C 10,6 C 81 % 1021,3 hPa 0,0 l/m 1,5 km/h (1 Bft) S-SW 195 0 min 0,0 UV-I 0 W/m 9,5 C 12,7 C 4,8 km/h (1 Bft)
30.10.2022 20:33 12,6 C 10,0 C 81 % 1021,4 hPa 0,0 l/m 1,3 km/h (1 Bft) S-SW 203 0 min 0,0 UV-I 0 W/m 9,4 C 12,6 C 4,8 km/h (1 Bft)
30.10.2022 20:36 12,4 C 10,0 C 81 % 1021,3 hPa 0,0 l/m 1,6 km/h (1 Bft) SW 215 0 min 0,0 UV-I 0 W/m 9,2 C 12,4 C 6,4 km/h (2 Bft)
30.10.2022 20:39 12,5 C 10,0 C 81 % 1021,4 hPa 0,0 l/m 2,1 km/h (1 Bft) SW 215 0 min 0,0 UV-I 0 W/m 9,3 C 12,5 C 4,8 km/h (1 Bft)
30.10.2022 20:42 12,4 C 10,0 C 82 % 1021,3 hPa 0,0 l/m 2,0 km/h (1 Bft) S-SW 213 0 min 0,0 UV-I 0 W/m 9,4 C 12,4 C 4,8 km/h (1 Bft)
30.10.2022 20:45 12,3 C 9,4 C 82 % 1021,3 hPa 0,0 l/m 0,3 km/h (0 Bft) S-SW 213 0 min 0,0 UV-I 0 W/m 9,3 C 12,3 C 1,6 km/h (1 Bft)
30.10.2022 20:48 12,2 C 9,4 C 82 % 1021,2 hPa 0,0 l/m 0,9 km/h (0 Bft) S-SW 213 0 min 0,0 UV-I 0 W/m 9,2 C 12,2 C 3,2 km/h (1 Bft)
30.10.2022 20:51 12,2 C 9,4 C 82 % 1021,3 hPa 0,0 l/m 1,6 km/h (1 Bft) S-SW 213 0 min 0,0 UV-I 0 W/m 9,2 C 12,2 C 3,2 km/h (1 Bft)
30.10.2022 20:54 12,2 C 9,4 C 82 % 1021,4 hPa 0,0 l/m 1,9 km/h (1 Bft) S-SW 213 0 min 0,0 UV-I 0 W/m 9,2 C 12,2 C 3,2 km/h (1 Bft)
30.10.2022 20:57 12,2 C 10,0 C 82 % 1021,3 hPa 0,0 l/m 3,9 km/h (1 Bft) SO 144 0 min 0,0 UV-I 0 W/m 9,2 C 12,2 C 8,0 km/h (2 Bft)
30.10.2022 21:00 12,3 C 10,0 C 82 % 1021,4 hPa 0,0 l/m 4,7 km/h (1 Bft) SO 141 0 min 0,0 UV-I 0 W/m 9,3 C 12,3 C 8,0 km/h (2 Bft)
30.10.2022 21:03 12,4 C 10,0 C 82 % 1021,4 hPa 0,0 l/m 4,3 km/h (1 Bft) SO 141 0 min 0,0 UV-I 0 W/m 9,4 C 12,4 C 6,4 km/h (2 Bft)
30.10.2022 21:06 12,4 C 10,0 C 82 % 1021,4 hPa 0,0 l/m 3,3 km/h (1 Bft) SO 141 0 min 0,0 UV-I 0 W/m 9,4 C 12,4 C 4,8 km/h (1 Bft)
30.10.2022 21:09 12,6 C 10,0 C 82 % 1021,4 hPa 0,0 l/m 3,5 km/h (1 Bft) SO 141 0 min 0,0 UV-I 0 W/m 9,6 C 12,6 C 6,4 km/h (2 Bft)
30.10.2022 21:12 12,6 C 10,0 C 81 % 1021,3 hPa 0,0 l/m 3,5 km/h (1 Bft) SO 141 0 min 0,0 UV-I 0 W/m 9,4 C 12,6 C 6,4 km/h (2 Bft)
30.10.2022 21:15 12,5 C 10,0 C 81 % 1021,3 hPa 0,0 l/m 3,0 km/h (1 Bft) SO 141 0 min 0,0 UV-I 0 W/m 9,3 C 12,5 C 6,4 km/h (2 Bft)
30.10.2022 21:18 12,3 C 10,0 C 81 % 1021,4 hPa 0,0 l/m 3,2 km/h (1 Bft) SO 141 0 min 0,0 UV-I 0 W/m 9,1 C 12,3 C 4,8 km/h (1 Bft)
30.10.2022 21:21 12,2 C 10,0 C 82 % 1021,4 hPa 0,0 l/m 3,1 km/h (1 Bft) SO 141 0 min 0,0 UV-I 0 W/m 9,2 C 12,2 C 4,8 km/h (1 Bft)
30.10.2022 21:24 12,2 C 10,0 C 82 % 1021,3 hPa 0,0 l/m 2,6 km/h (1 Bft) SO 141 0 min 0,0 UV-I 0 W/m 9,2 C 12,2 C 4,8 km/h (1 Bft)
30.10.2022 21:27 12,3 C 10,0 C 82 % 1021,4 hPa 0,0 l/m 2,5 km/h (1 Bft) SO 141 0 min 0,0 UV-I 0 W/m 9,3 C 12,3 C 4,8 km/h (1 Bft)
30.10.2022 21:30 12,3 C 10,0 C 82 % 1021,3 hPa 0,0 l/m 2,2 km/h (1 Bft) SO 141 0 min 0,0 UV-I 0 W/m 9,3 C 12,3 C 3,2 km/h (1 Bft)
30.10.2022 21:33 12,3 C 10,6 C 81 % 1021,5 hPa 0,0 l/m 2,7 km/h (1 Bft) SO 141 0 min 0,0 UV-I 0 W/m 9,1 C 12,3 C 4,8 km/h (1 Bft)
30.10.2022 21:36 12,3 C 10,6 C 81 % 1021,4 hPa 0,0 l/m 3,6 km/h (1 Bft) S-SO 163 0 min 0,0 UV-I 0 W/m 9,1 C 12,3 C 8,0 km/h (2 Bft)
30.10.2022 21:39 12,3 C 10,6 C 81 % 1021,5 hPa 0,0 l/m 3,9 km/h (1 Bft) S-SO 163 0 min 0,0 UV-I 0 W/m 9,1 C 12,3 C 8,0 km/h (2 Bft)
30.10.2022 21:42 12,2 C 10,6 C 81 % 1021,5 hPa 0,0 l/m 3,4 km/h (1 Bft) S-SO 163 0 min 0,0 UV-I 0 W/m 9,0 C 12,2 C 6,4 km/h (2 Bft)
30.10.2022 21:45 12,2 C 10,0 C 81 % 1021,4 hPa 0,0 l/m 3,1 km/h (1 Bft) S-SO 163 0 min 0,0 UV-I 0 W/m 9,0 C 12,2 C 6,4 km/h (2 Bft)
30.10.2022 21:48 12,2 C 10,0 C 81 % 1021,5 hPa 0,0 l/m 3,6 km/h (1 Bft) S-SO 163 0 min 0,0 UV-I 0 W/m 9,0 C 12,2 C 6,4 km/h (2 Bft)
30.10.2022 21:51 12,2 C 10,0 C 81 % 1021,5 hPa 0,0 l/m 4,4 km/h (1 Bft) S-SO 163 0 min 0,0 UV-I 0 W/m 9,0 C 12,2 C 8,0 km/h (2 Bft)
30.10.2022 21:54 12,2 C 9,4 C 81 % 1021,5 hPa 0,0 l/m 1,9 km/h (1 Bft) S-SO 163 0 min 0,0 UV-I 0 W/m 9,0 C 12,2 C 3,2 km/h (1 Bft)
30.10.2022 21:57 12,1 C 9,4 C 81 % 1021,5 hPa 0,0 l/m 2,3 km/h (1 Bft) S-SO 163 0 min 0,0 UV-I 0 W/m 8,9 C 12,1 C 6,4 km/h (2 Bft)
30.10.2022 22:00 11,9 C 9,4 C 82 % 1021,6 hPa 0,0 l/m 2,3 km/h (1 Bft) S-SO 163 0 min 0,0 UV-I 0 W/m 8,9 C 11,9 C 6,4 km/h (2 Bft)
30.10.2022 22:03 11,8 C 9,4 C 82 % 1021,8 hPa 0,0 l/m 2,5 km/h (1 Bft) S-SO 163 0 min 0,0 UV-I 0 W/m 8,8 C 11,8 C 6,4 km/h (2 Bft)
30.10.2022 22:06 11,9 C 9,4 C 82 % 1021,7 hPa 0,0 l/m 1,5 km/h (1 Bft) S-SO 163 0 min 0,0 UV-I 0 W/m 8,9 C 11,9 C 3,2 km/h (1 Bft)
30.10.2022 22:09 12,0 C 9,4 C 82 % 1021,8 hPa 0,0 l/m 1,1 km/h (1 Bft) S-SO 163 0 min 0,0 UV-I 0 W/m 9,0 C 12,0 C 3,2 km/h (1 Bft)
30.10.2022 22:12 11,9 C 8,9 C 81 % 1021,9 hPa 0,0 l/m 1,0 km/h (0 Bft) S-SO 163 0 min 0,0 UV-I 0 W/m 8,7 C 11,9 C 3,2 km/h (1 Bft)
30.10.2022 22:15 11,6 C 8,9 C 82 % 1021,9 hPa 0,0 l/m 0,1 km/h (0 Bft) S-SO 163 0 min 0,0 UV-I 0 W/m 8,6 C 11,6 C 1,6 km/h (1 Bft)
30.10.2022 22:18 11,6 C 8,9 C 83 % 1021,9 hPa 0,0 l/m 0,0 km/h (0 Bft) S-SO 163 0 min 0,0 UV-I 0 W/m 8,8 C 11,6 C 1,6 km/h (1 Bft)
30.10.2022 22:21 11,5 C 8,9 C 83 % 1022,0 hPa 0,0 l/m 1,1 km/h (1 Bft) S-SO 163 0 min 0,0 UV-I 0 W/m 8,7 C 11,5 C 3,2 km/h (1 Bft)
30.10.2022 22:24 11,5 C 8,3 C 83 % 1022,1 hPa 0,0 l/m 3,0 km/h (1 Bft) S-SO 163 0 min 0,0 UV-I 0 W/m 8,7 C 11,5 C 6,4 km/h (2 Bft)
30.10.2022 22:27 11,4 C 8,9 C 83 % 1022,1 hPa 0,0 l/m 3,2 km/h (1 Bft) S-SO 165 0 min 0,0 UV-I 0 W/m 8,6 C 11,4 C 6,4 km/h (2 Bft)
30.10.2022 22:30 11,3 C 8,9 C 83 % 1022,2 hPa 0,0 l/m 2,7 km/h (1 Bft) S-SO 165 0 min 0,0 UV-I 0 W/m 8,5 C 11,3 C 6,4 km/h (2 Bft)
30.10.2022 22:33 11,4 C 8,9 C 84 % 1022,2 hPa 0,0 l/m 1,1 km/h (1 Bft) S-SO 165 0 min 0,0 UV-I 0 W/m 8,8 C 11,4 C 3,2 km/h (1 Bft)
30.10.2022 22:36 11,4 C 8,9 C 84 % 1022,2 hPa 0,0 l/m 1,7 km/h (1 Bft) S-SO 165 0 min 0,0 UV-I 0 W/m 8,8 C 11,4 C 3,2 km/h (1 Bft)
30.10.2022 22:39 11,4 C 8,9 C 84 % 1022,2 hPa 0,0 l/m 0,4 km/h (0 Bft) S-SO 165 0 min 0,0 UV-I 0 W/m 8,8 C 11,4 C 1,6 km/h (1 Bft)
30.10.2022 22:42 11,3 C 8,9 C 84 % 1022,2 hPa 0,0 l/m 0,5 km/h (0 Bft) S-SO 165 0 min 0,0 UV-I 0 W/m 8,7 C 11,3 C 1,6 km/h (1 Bft)
30.10.2022 22:45 10,9 C 8,9 C 84 % 1022,2 hPa 0,0 l/m 0,0 km/h (0 Bft) S-SO 165 0 min 0,0 UV-I 0 W/m 8,3 C 10,9 C 0,0 km/h (0 Bft)
30.10.2022 22:48 10,6 C 8,3 C 85 % 1022,3 hPa 0,0 l/m 0,3 km/h (0 Bft) S-SO 165 0 min 0,0 UV-I 0 W/m 8,2 C 10,6 C 1,6 km/h (1 Bft)
30.10.2022 22:51 10,5 C 8,3 C 86 % 1022,3 hPa 0,0 l/m 1,6 km/h (1 Bft) S-SO 165 0 min 0,0 UV-I 0 W/m 8,3 C 10,5 C 3,2 km/h (1 Bft)
30.10.2022 22:54 10,4 C 8,3 C 86 % 1022,2 hPa 0,0 l/m 0,8 km/h (0 Bft) S-SO 165 0 min 0,0 UV-I 0 W/m 8,2 C 10,4 C 3,2 km/h (1 Bft)
30.10.2022 22:57 10,4 C 8,3 C 86 % 1022,2 hPa 0,0 l/m 1,5 km/h (1 Bft) S-SO 165 0 min 0,0 UV-I 0 W/m 8,2 C 10,4 C 3,2 km/h (1 Bft)
30.10.2022 23:00 10,3 C 8,3 C 86 % 1022,3 hPa 0,0 l/m 1,4 km/h (1 Bft) S-SO 165 0 min 0,0 UV-I 0 W/m 8,1 C 10,3 C 3,2 km/h (1 Bft)
30.10.2022 23:03 10,3 C 8,3 C 87 % 1022,3 hPa 0,0 l/m 0,8 km/h (0 Bft) S-SO 165 0 min 0,0 UV-I 0 W/m 8,2 C 10,3 C 1,6 km/h (1 Bft)
30.10.2022 23:06 10,3 C 8,3 C 87 % 1022,3 hPa 0,0 l/m 0,1 km/h (0 Bft) S-SO 165 0 min 0,0 UV-I 0 W/m 8,2 C 10,3 C 1,6 km/h (1 Bft)
30.10.2022 23:09 10,3 C 8,3 C 87 % 1022,2 hPa 0,0 l/m 0,6 km/h (0 Bft) S-SO 165 0 min 0,0 UV-I 0 W/m 8,2 C 10,3 C 1,6 km/h (1 Bft)
30.10.2022 23:12 10,4 C 8,3 C 87 % 1022,2 hPa 0,0 l/m 0,8 km/h (0 Bft) S-SO 165 0 min 0,0 UV-I 0 W/m 8,3 C 10,4 C 1,6 km/h (1 Bft)
30.10.2022 23:15 10,6 C 8,3 C 87 % 1022,2 hPa 0,0 l/m 0,0 km/h (0 Bft) S-SO 165 0 min 0,0 UV-I 0 W/m 8,5 C 10,6 C 0,0 km/h (0 Bft)
30.10.2022 23:18 10,7 C 7,8 C 87 % 1022,3 hPa 0,0 l/m 0,0 km/h (0 Bft) S-SO 165 0 min 0,0 UV-I 0 W/m 8,6 C 10,7 C 1,6 km/h (1 Bft)
30.10.2022 23:21 10,6 C 7,8 C 87 % 1022,2 hPa 0,0 l/m 0,0 km/h (0 Bft) S-SO 165 0 min 0,0 UV-I 0 W/m 8,5 C 10,6 C 0,0 km/h (0 Bft)
30.10.2022 23:24 10,7 C 8,3 C 87 % 1022,2 hPa 0,0 l/m 0,6 km/h (0 Bft) S-SO 165 0 min 0,0 UV-I 0 W/m 8,6 C 10,7 C 1,6 km/h (1 Bft)
30.10.2022 23:27 10,7 C 8,3 C 86 % 1022,3 hPa 0,0 l/m 0,5 km/h (0 Bft) S-SO 165 0 min 0,0 UV-I 0 W/m 8,5 C 10,7 C 1,6 km/h (1 Bft)
30.10.2022 23:30 10,6 C 8,3 C 86 % 1022,2 hPa 0,0 l/m 1,5 km/h (1 Bft) S-SO 165 0 min 0,0 UV-I 0 W/m 8,4 C 10,6 C 3,2 km/h (1 Bft)
30.10.2022 23:33 10,7 C 7,8 C 86 % 1022,3 hPa 0,0 l/m 1,4 km/h (1 Bft) S-SO 165 0 min 0,0 UV-I 0 W/m 8,5 C 10,7 C 3,2 km/h (1 Bft)
30.10.2022 23:36 10,6 C 8,3 C 86 % 1022,2 hPa 0,0 l/m 0,9 km/h (0 Bft) S-SO 165 0 min 0,0 UV-I 0 W/m 8,4 C 10,6 C 3,2 km/h (1 Bft)
30.10.2022 23:39 10,6 C 8,3 C 87 % 1022,4 hPa 0,0 l/m 2,4 km/h (1 Bft) S-SO 165 0 min 0,0 UV-I 0 W/m 8,5 C 10,6 C 6,4 km/h (2 Bft)
30.10.2022 23:42 10,6 C 8,3 C 87 % 1022,4 hPa 0,0 l/m 1,5 km/h (1 Bft) S-SO 165 0 min 0,0 UV-I 0 W/m 8,5 C 10,6 C 3,2 km/h (1 Bft)
30.10.2022 23:45 10,5 C 8,3 C 86 % 1022,4 hPa 0,0 l/m 3,4 km/h (1 Bft) S-SO 165 0 min 0,0 UV-I 0 W/m 8,3 C 10,5 C 6,4 km/h (2 Bft)
30.10.2022 23:48 10,5 C 8,3 C 87 % 1022,4 hPa 0,0 l/m 2,7 km/h (1 Bft) S-SO 165 0 min 0,0 UV-I 0 W/m 8,4 C 10,5 C 6,4 km/h (2 Bft)
30.10.2022 23:51 10,4 C 8,3 C 87 % 1022,4 hPa 0,0 l/m 2,9 km/h (1 Bft) S-SO 165 0 min 0,0 UV-I 0 W/m 8,3 C 10,4 C 6,4 km/h (2 Bft)
30.10.2022 23:54 10,3 C 7,8 C 87 % 1022,4 hPa 0,0 l/m 2,9 km/h (1 Bft) S-SO 165 0 min 0,0 UV-I 0 W/m 8,2 C 10,3 C 6,4 km/h (2 Bft)
30.10.2022 23:57 10,3 C 7,8 C 87 % 1022,4 hPa 0,0 l/m 2,3 km/h (1 Bft) S-SO 165 0 min 0,0 UV-I 0 W/m 8,2 C 10,3 C 3,2 km/h (1 Bft)
30.10.2022 23:58 10,3 C 7,8 C 87 % 1022,5 hPa 0,0 l/m 1,6 km/h (1 Bft) S-SO 157 0 min 0,0 UV-I 0 W/m 8,2 C 10,3 C 3,2 km/h (1 Bft)
30.10.2022 23:59 10,3 C 8,3 C 87 % 1022,5 hPa 0,0 l/m 1,6 km/h (1 Bft) S-SO 157 0 min 0,0 UV-I 0 W/m 8,2 C 10,3 C 3,2 km/h (1 Bft)
_ Min-Zeit 07:27 06:09 12:51 15:12 - 00:03 - - - - - 07:27 07:27 00:03
Minimum _ 5,8 C 4,4 C 50 % 1018,9 hPa - 0,0 km/h (0 Bft) - - - - - 4,6 C 5,8 C 0,0 km/h (0 Bft)
_ Max-Zeit 12:30 12:06 08:15 23:58 00:00 13:06 - - 10:39 12:06 12:06 11:06 13:36 13:06
Maximum _ 19,4 C 24,4 C 94 % 1022,5 hPa 0,0 l/m 18,2 km/h
S-SW (3 Bft)
- - 3 min 2,2 UV-I 459 W/m 11,7 C 18,4 C 30,6 km/h
S (5 Bft)
Durchschnitt _ 12,9 C 12,4 C 78 % 1020,2 hPa #0,0 l/m 4,5 km/h (1 Bft) S-SO - #1:30 h 1,2 UV-I 192 W/m 8,9 C 12,3 C 7,7 km/h (2 Bft)